Wetterdaten: Freitag, 20.12.2019
Datum Zeit Temp. Aussen Temp. o. S. Temp +5cm Feuchte Auss Luftdruck Regen Sonnenschein Regendauer Solar Windben Empfang
20.12.2019 00:00 9,8 C 9,4 C 8,3 C 84 % 1000,7 hPa 0,0 l/m 0 min 0 min 0 W/m 25,7 km/h (4 Bft) 97,87 %
20.12.2019 00:02 9,8 C 9,4 C 8,3 C 84 % 1000,7 hPa 0,0 l/m 0 min 0 min 0 W/m 22,5 km/h (4 Bft) 95,45 %
20.12.2019 00:04 9,8 C 9,4 C 8,3 C 84 % 1000,6 hPa 0,0 l/m 0 min 0 min 0 W/m 32,2 km/h (5 Bft) 97,87 %
20.12.2019 00:08 9,9 C 9,4 C 8,3 C 84 % 1000,6 hPa 0,0 l/m 0 min 0 min 0 W/m 35,4 km/h (5 Bft) 98,94 %
20.12.2019 00:10 9,9 C 9,4 C 8,3 C 84 % 1000,6 hPa 0,0 l/m 0 min 0 min 0 W/m 22,5 km/h (4 Bft) 100,00 %
20.12.2019 00:12 9,9 C 9,4 C 8,3 C 84 % 1000,5 hPa 0,0 l/m 0 min 0 min 0 W/m 22,5 km/h (4 Bft) 95,65 %
20.12.2019 00:14 9,9 C 8,9 C 8,3 C 84 % 1000,5 hPa 0,0 l/m 0 min 0 min 0 W/m 22,5 km/h (4 Bft) 100,00 %
20.12.2019 00:16 9,9 C 8,9 C 8,3 C 84 % 1000,5 hPa 0,0 l/m 0 min 0 min 0 W/m 41,8 km/h (6 Bft) 97,87 %
20.12.2019 00:18 9,9 C 8,9 C 8,3 C 84 % 1000,4 hPa 0,0 l/m 0 min 0 min 0 W/m 25,7 km/h (4 Bft) 100,00 %
20.12.2019 00:20 9,9 C 8,9 C 8,3 C 84 % 1000,4 hPa 0,0 l/m 0 min 0 min 0 W/m 22,5 km/h (4 Bft) 97,87 %
20.12.2019 00:22 9,9 C 8,9 C 8,3 C 84 % 1000,3 hPa 0,0 l/m 0 min 0 min 0 W/m 29,0 km/h (5 Bft) 97,87 %
20.12.2019 00:24 9,9 C 8,9 C 8,3 C 83 % 1000,3 hPa 0,0 l/m 0 min 0 min 0 W/m 22,5 km/h (4 Bft) 100,00 %
20.12.2019 00:26 9,9 C 8,9 C 8,3 C 83 % 1000,1 hPa 0,0 l/m 0 min 0 min 0 W/m 25,7 km/h (4 Bft) 100,00 %
20.12.2019 00:28 9,9 C 8,9 C 8,3 C 83 % 1000,0 hPa 0,0 l/m 0 min 0 min 0 W/m 25,7 km/h (4 Bft) 100,00 %
20.12.2019 00:30 9,9 C 8,9 C 8,3 C 83 % 1000,0 hPa 0,0 l/m 0 min 0 min 0 W/m 22,5 km/h (4 Bft) 100,00 %
20.12.2019 00:32 9,9 C 9,4 C 8,3 C 83 % 999,9 hPa 0,0 l/m 0 min 0 min 0 W/m 25,7 km/h (4 Bft) 97,87 %
20.12.2019 00:34 9,9 C 9,4 C 8,3 C 83 % 999,8 hPa 0,0 l/m 0 min 0 min 0 W/m 25,7 km/h (4 Bft) 100,00 %
20.12.2019 00:36 9,9 C 9,4 C 8,3 C 83 % 999,8 hPa 0,0 l/m 0 min 0 min 0 W/m 29,0 km/h (5 Bft) 100,00 %
20.12.2019 00:38 9,9 C 9,4 C 8,3 C 83 % 999,7 hPa 0,0 l/m 0 min 0 min 0 W/m 29,0 km/h (5 Bft) 100,00 %
20.12.2019 00:40 9,9 C 9,4 C 8,9 C 83 % 999,6 hPa 0,0 l/m 0 min 0 min 0 W/m 25,7 km/h (4 Bft) 100,00 %
20.12.2019 00:42 9,9 C 9,4 C 8,9 C 83 % 999,5 hPa 0,0 l/m 0 min 0 min 0 W/m 25,7 km/h (4 Bft) 97,87 %
20.12.2019 00:44 10,0 C 9,4 C 8,3 C 83 % 999,4 hPa 0,0 l/m 0 min 0 min 0 W/m 29,0 km/h (5 Bft) 100,00 %
20.12.2019 00:46 10,0 C 9,4 C 8,3 C 83 % 999,3 hPa 0,0 l/m 0 min 0 min 0 W/m 19,3 km/h (3 Bft) 100,00 %
20.12.2019 00:48 10,0 C 9,4 C 8,3 C 83 % 999,3 hPa 0,0 l/m 0 min 0 min 0 W/m 25,7 km/h (4 Bft) 100,00 %
20.12.2019 00:50 10,0 C 9,4 C 8,3 C 83 % 999,2 hPa 0,0 l/m 0 min 0 min 0 W/m 25,7 km/h (4 Bft) 95,74 %
20.12.2019 00:52 10,1 C 9,4 C 8,3 C 83 % 999,2 hPa 0,0 l/m 0 min 0 min 0 W/m 25,7 km/h (4 Bft) 97,87 %
20.12.2019 00:54 10,1 C 9,4 C 8,9 C 83 % 999,1 hPa 0,0 l/m 0 min 0 min 0 W/m 29,0 km/h (5 Bft) 95,35 %
20.12.2019 00:56 10,1 C 9,4 C 8,9 C 83 % 999,1 hPa 0,0 l/m 0 min 0 min 0 W/m 25,7 km/h (4 Bft) 97,87 %
20.12.2019 00:58 10,1 C 9,4 C 8,9 C 83 % 999,1 hPa 0,0 l/m 0 min 0 min 0 W/m 32,2 km/h (5 Bft) 97,87 %
20.12.2019 01:00 10,1 C 9,4 C 8,3 C 83 % 999,0 hPa 0,0 l/m 0 min 0 min 0 W/m 25,7 km/h (4 Bft) 97,87 %
20.12.2019 01:02 10,1 C 9,4 C 8,3 C 83 % 999,0 hPa 0,0 l/m 0 min 0 min 0 W/m 25,7 km/h (4 Bft) 97,87 %
20.12.2019 01:04 10,1 C 9,4 C 8,3 C 83 % 999,1 hPa 0,0 l/m 0 min 0 min 0 W/m 25,7 km/h (4 Bft) 97,83 %
20.12.2019 01:06 10,1 C 9,4 C 8,3 C 83 % 999,0 hPa 0,0 l/m 0 min 0 min 0 W/m 22,5 km/h (4 Bft) 97,87 %
20.12.2019 01:08 10,1 C 8,9 C 8,3 C 83 % 999,1 hPa 0,0 l/m 0 min 0 min 0 W/m 19,3 km/h (3 Bft) 97,87 %
20.12.2019 01:10 10,0 C 8,9 C 8,3 C 83 % 999,0 hPa 0,0 l/m 0 min 0 min 0 W/m 35,4 km/h (5 Bft) 95,74 %
20.12.2019 01:12 10,0 C 8,9 C 8,3 C 83 % 999,0 hPa 0,0 l/m 0 min 0 min 0 W/m 22,5 km/h (4 Bft) 97,87 %
20.12.2019 01:14 10,0 C 8,9 C 8,3 C 83 % 998,8 hPa 0,0 l/m 0 min 0 min 0 W/m 25,7 km/h (4 Bft) 95,65 %
20.12.2019 01:16 9,9 C 8,9 C 8,3 C 83 % 998,8 hPa 0,0 l/m 0 min 0 min 0 W/m 29,0 km/h (5 Bft) 95,74 %
20.12.2019 01:18 9,9 C 8,9 C 8,3 C 83 % 998,8 hPa 0,0 l/m 0 min 0 min 0 W/m 29,0 km/h (5 Bft) 95,74 %
20.12.2019 01:20 9,9 C 8,9 C 8,3 C 83 % 998,8 hPa 0,0 l/m 0 min 0 min 0 W/m 19,3 km/h (3 Bft) 95,74 %
20.12.2019 01:22 9,9 C 8,9 C 8,3 C 83 % 998,7 hPa 0,0 l/m 0 min 0 min 0 W/m 32,2 km/h (5 Bft) 93,62 %
20.12.2019 01:24 9,9 C 8,9 C 8,3 C 83 % 998,7 hPa 0,0 l/m 0 min 0 min 0 W/m 25,7 km/h (4 Bft) 95,74 %
20.12.2019 01:26 9,9 C 8,9 C 8,3 C 83 % 998,6 hPa 0,0 l/m 0 min 0 min 0 W/m 25,7 km/h (4 Bft) 97,83 %
20.12.2019 01:28 9,8 C 8,9 C 8,3 C 83 % 998,6 hPa 0,0 l/m 0 min 0 min 0 W/m 32,2 km/h (5 Bft) 95,74 %
20.12.2019 01:30 9,8 C 8,9 C 8,3 C 83 % 998,5 hPa 0,0 l/m 0 min 0 min 0 W/m 29,0 km/h (5 Bft) 95,74 %
20.12.2019 01:32 9,8 C 9,4 C 8,3 C 83 % 998,5 hPa 0,0 l/m 0 min 0 min 0 W/m 48,3 km/h (6 Bft) 95,74 %
20.12.2019 01:34 9,8 C 9,4 C 8,3 C 83 % 998,5 hPa 0,0 l/m 0 min 0 min 0 W/m 32,2 km/h (5 Bft) 97,87 %
20.12.2019 01:36 9,9 C 9,4 C 8,3 C 83 % 998,4 hPa 0,0 l/m 0 min 0 min 0 W/m 19,3 km/h (3 Bft) 97,87 %
20.12.2019 01:38 9,9 C 8,9 C 8,3 C 83 % 998,3 hPa 0,0 l/m 0 min 0 min 0 W/m 25,7 km/h (4 Bft) 97,83 %
20.12.2019 01:40 9,9 C 8,9 C 8,3 C 83 % 998,3 hPa 0,0 l/m 0 min 0 min 0 W/m 25,7 km/h (4 Bft) 97,87 %
20.12.2019 01:42 9,9 C 9,4 C 8,3 C 83 % 998,3 hPa 0,0 l/m 0 min 0 min 0 W/m 29,0 km/h (5 Bft) 93,62 %
20.12.2019 01:44 9,9 C 8,9 C 8,3 C 83 % 998,2 hPa 0,0 l/m 0 min 0 min 0 W/m 29,0 km/h (5 Bft) 97,87 %
20.12.2019 01:46 9,9 C 8,9 C 8,3 C 83 % 998,2 hPa 0,0 l/m 0 min 0 min 0 W/m 22,5 km/h (4 Bft) 95,74 %
20.12.2019 01:48 9,9 C 8,9 C 8,3 C 83 % 998,2 hPa 0,0 l/m 0 min 0 min 0 W/m 29,0 km/h (5 Bft) 97,87 %
20.12.2019 01:50 9,8 C 8,9 C 8,3 C 83 % 998,2 hPa 0,0 l/m 0 min 0 min 0 W/m 25,7 km/h (4 Bft) 93,48 %
20.12.2019 01:52 9,8 C 8,9 C 8,3 C 83 % 998,1 hPa 0,0 l/m 0 min 0 min 0 W/m 22,5 km/h (4 Bft) 97,87 %
20.12.2019 01:54 9,8 C 8,9 C 8,3 C 83 % 998,0 hPa 0,0 l/m 0 min 0 min 0 W/m 25,7 km/h (4 Bft) 97,87 %
20.12.2019 01:56 9,8 C 8,9 C 8,3 C 83 % 997,9 hPa 0,0 l/m 0 min 0 min 0 W/m 35,4 km/h (5 Bft) 97,87 %
20.12.2019 01:58 9,8 C 8,9 C 8,3 C 83 % 997,9 hPa 0,0 l/m 0 min 0 min 0 W/m 29,0 km/h (5 Bft) 97,87 %
20.12.2019 02:00 9,7 C 8,9 C 8,3 C 83 % 997,8 hPa 0,0 l/m 0 min 0 min 0 W/m 35,4 km/h (5 Bft) 97,87 %
20.12.2019 02:02 9,7 C 8,9 C 8,3 C 83 % 997,8 hPa 0,0 l/m 0 min 0 min 0 W/m 29,0 km/h (5 Bft) 97,83 %
20.12.2019 02:04 9,7 C 8,9 C 8,3 C 83 % 997,7 hPa 0,0 l/m 0 min 0 min 0 W/m 29,0 km/h (5 Bft) 97,87 %
20.12.2019 02:06 9,7 C 8,9 C 8,3 C 83 % 997,6 hPa 0,0 l/m 0 min 0 min 0 W/m 29,0 km/h (5 Bft) 97,87 %
20.12.2019 02:08 9,7 C 8,9 C 7,8 C 83 % 997,6 hPa 0,0 l/m 0 min 0 min 0 W/m 25,7 km/h (4 Bft) 100,00 %
20.12.2019 02:10 9,6 C 8,9 C 7,8 C 83 % 997,6 hPa 0,0 l/m 0 min 0 min 0 W/m 25,7 km/h (4 Bft) 97,87 %
20.12.2019 02:12 9,6 C 8,9 C 7,8 C 83 % 997,6 hPa 0,0 l/m 0 min 0 min 0 W/m 29,0 km/h (5 Bft) 97,83 %
20.12.2019 02:14 9,6 C 8,9 C 7,8 C 83 % 997,5 hPa 0,0 l/m 0 min 0 min 0 W/m 35,4 km/h (5 Bft) 97,87 %
20.12.2019 02:16 9,6 C 8,9 C 7,8 C 83 % 997,5 hPa 0,0 l/m 0 min 0 min 0 W/m 22,5 km/h (4 Bft) 97,87 %
20.12.2019 02:18 9,6 C 8,9 C 7,8 C 83 % 997,5 hPa 0,0 l/m 0 min 0 min 0 W/m 22,5 km/h (4 Bft) 95,74 %
20.12.2019 02:20 9,6 C 8,3 C 7,8 C 83 % 997,3 hPa 0,0 l/m 0 min 0 min 0 W/m 22,5 km/h (4 Bft) 100,00 %
20.12.2019 02:22 9,5 C 8,3 C 7,8 C 83 % 997,3 hPa 0,0 l/m 0 min 0 min 0 W/m 25,7 km/h (4 Bft) 100,00 %
20.12.2019 02:24 9,5 C 8,9 C 7,8 C 83 % 997,3 hPa 0,0 l/m 0 min 0 min 0 W/m 25,7 km/h (4 Bft) 100,00 %
20.12.2019 02:26 9,5 C 8,9 C 7,8 C 83 % 997,3 hPa 0,0 l/m 0 min 0 min 0 W/m 25,7 km/h (4 Bft) 100,00 %
20.12.2019 02:28 9,5 C 8,9 C 7,8 C 83 % 997,3 hPa 0,0 l/m 0 min 0 min 0 W/m 22,5 km/h (4 Bft) 100,00 %
20.12.2019 02:30 9,4 C 8,9 C 7,8 C 83 % 997,2 hPa 0,0 l/m 0 min 0 min 0 W/m 29,0 km/h (5 Bft) 100,00 %
20.12.2019 02:32 9,4 C 8,3 C 7,8 C 83 % 997,2 hPa 0,0 l/m 0 min 0 min 0 W/m 22,5 km/h (4 Bft) 100,00 %
20.12.2019 02:34 9,4 C 8,3 C 7,8 C 83 % 997,2 hPa 0,0 l/m 0 min 0 min 0 W/m 35,4 km/h (5 Bft) 100,00 %
20.12.2019 02:36 9,4 C 8,3 C 7,8 C 83 % 997,1 hPa 0,0 l/m 0 min 0 min 0 W/m 32,2 km/h (5 Bft) 100,00 %
20.12.2019 02:38 9,4 C 8,3 C 7,8 C 83 % 997,0 hPa 0,0 l/m 0 min 0 min 0 W/m 29,0 km/h (5 Bft) 97,87 %
20.12.2019 02:40 9,4 C 8,3 C 7,8 C 83 % 996,8 hPa 0,0 l/m 0 min 0 min 0 W/m 25,7 km/h (4 Bft) 97,87 %
20.12.2019 02:42 9,4 C 8,3 C 7,8 C 83 % 996,8 hPa 0,0 l/m 0 min 0 min 0 W/m 32,2 km/h (5 Bft) 97,87 %
20.12.2019 02:44 9,4 C 8,9 C 7,8 C 83 % 996,8 hPa 0,0 l/m 0 min 0 min 0 W/m 35,4 km/h (5 Bft) 97,87 %
20.12.2019 02:46 9,4 C 8,9 C 7,8 C 83 % 996,8 hPa 0,0 l/m 0 min 0 min 0 W/m 25,7 km/h (4 Bft) 95,74 %
20.12.2019 02:48 9,4 C 8,9 C 7,8 C 83 % 996,7 hPa 0,0 l/m 0 min 0 min 0 W/m 35,4 km/h (5 Bft) 97,83 %
20.12.2019 02:50 9,4 C 8,3 C 7,8 C 84 % 996,7 hPa 0,0 l/m 0 min 0 min 0 W/m 25,7 km/h (4 Bft) 97,87 %
20.12.2019 02:52 9,4 C 8,3 C 7,8 C 84 % 996,7 hPa 0,0 l/m 0 min 0 min 0 W/m 22,5 km/h (4 Bft) 97,87 %
20.12.2019 02:54 9,4 C 8,3 C 7,8 C 84 % 996,7 hPa 0,0 l/m 0 min 0 min 0 W/m 22,5 km/h (4 Bft) 97,87 %
20.12.2019 02:56 9,3 C 8,3 C 7,8 C 84 % 996,7 hPa 0,0 l/m 0 min 0 min 0 W/m 25,7 km/h (4 Bft) 97,87 %
20.12.2019 02:58 9,3 C 8,3 C 7,8 C 84 % 996,6 hPa 0,0 l/m 0 min 0 min 0 W/m 32,2 km/h (5 Bft) 97,87 %
20.12.2019 03:00 9,3 C 8,3 C 7,8 C 84 % 996,5 hPa 0,0 l/m 0 min 0 min 0 W/m 38,6 km/h (5 Bft) 95,65 %
20.12.2019 03:02 9,3 C 8,3 C 7,8 C 84 % 996,4 hPa 0,0 l/m 0 min 0 min 0 W/m 29,0 km/h (5 Bft) 97,87 %
20.12.2019 03:04 9,3 C 8,3 C 7,8 C 84 % 996,4 hPa 0,0 l/m 0 min 0 min 0 W/m 38,6 km/h (5 Bft) 95,74 %
20.12.2019 03:06 9,3 C 8,3 C 7,8 C 84 % 996,2 hPa 0,0 l/m 0 min 0 min 0 W/m 29,0 km/h (5 Bft) 97,87 %
20.12.2019 03:08 9,3 C 8,3 C 7,8 C 84 % 996,1 hPa 0,0 l/m 0 min 0 min 0 W/m 25,7 km/h (4 Bft) 97,87 %
20.12.2019 03:10 9,3 C 8,3 C 7,8 C 84 % 996,0 hPa 0,0 l/m 0 min 0 min 0 W/m 29,0 km/h (5 Bft) 97,87 %
20.12.2019 03:12 9,3 C 8,3 C 7,8 C 84 % 996,1 hPa 0,0 l/m 0 min 0 min 0 W/m 29,0 km/h (5 Bft) 97,83 %
20.12.2019 03:14 9,3 C 8,3 C 7,8 C 84 % 995,9 hPa 0,0 l/m 0 min 0 min 0 W/m 25,7 km/h (4 Bft) 97,87 %
20.12.2019 03:16 9,3 C 8,3 C 7,8 C 84 % 995,9 hPa 0,0 l/m 0 min 0 min 0 W/m 29,0 km/h (5 Bft) 97,87 %
20.12.2019 03:18 9,3 C 8,3 C 7,8 C 84 % 995,8 hPa 0,0 l/m 0 min 0 min 0 W/m 29,0 km/h (5 Bft) 95,74 %
20.12.2019 03:20 9,3 C 8,3 C 7,8 C 84 % 995,8 hPa 0,0 l/m 0 min 0 min 0 W/m 32,2 km/h (5 Bft) 97,87 %
20.12.2019 03:22 9,3 C 8,3 C 7,8 C 84 % 995,7 hPa 0,0 l/m 0 min 0 min 0 W/m 25,7 km/h (4 Bft) 97,83 %
20.12.2019 03:24 9,3 C 8,3 C 7,8 C 84 % 995,6 hPa 0,0 l/m 0 min 0 min 0 W/m 38,6 km/h (5 Bft) 97,87 %
20.12.2019 03:26 9,3 C 8,3 C 7,8 C 84 % 995,5 hPa 0,0 l/m 0 min 0 min 0 W/m 29,0 km/h (5 Bft) 97,87 %
20.12.2019 03:28 9,3 C 8,3 C 7,8 C 84 % 995,5 hPa 0,0 l/m 0 min 0 min 0 W/m 29,0 km/h (5 Bft) 97,87 %
20.12.2019 03:30 9,3 C 8,3 C 7,8 C 84 % 995,5 hPa 0,0 l/m 0 min 0 min 0 W/m 29,0 km/h (5 Bft) 97,87 %
20.12.2019 03:32 9,3 C 8,3 C 7,8 C 84 % 995,4 hPa 0,0 l/m 0 min 0 min 0 W/m 25,7 km/h (4 Bft) 95,74 %
20.12.2019 03:34 9,3 C 8,3 C 7,8 C 84 % 995,4 hPa 0,0 l/m 0 min 0 min 0 W/m 22,5 km/h (4 Bft) 95,65 %
20.12.2019 03:36 9,3 C 8,3 C 7,8 C 84 % 995,4 hPa 0,0 l/m 0 min 0 min 0 W/m 22,5 km/h (4 Bft) 95,74 %
20.12.2019 03:38 9,3 C 8,3 C 7,8 C 84 % 995,3 hPa 0,0 l/m 0 min 0 min 0 W/m 29,0 km/h (5 Bft) 95,74 %
20.12.2019 03:40 9,3 C 8,3 C 7,8 C 84 % 995,3 hPa 0,0 l/m 0 min 0 min 0 W/m 16,1 km/h (3 Bft) 97,87 %
20.12.2019 03:42 9,3 C 8,3 C 7,8 C 84 % 995,3 hPa 0,0 l/m 0 min 0 min 0 W/m 22,5 km/h (4 Bft) 97,87 %
20.12.2019 03:44 9,3 C 8,3 C 7,8 C 84 % 995,2 hPa 0,0 l/m 0 min 0 min 0 W/m 19,3 km/h (3 Bft) 97,87 %
20.12.2019 03:46 9,3 C 8,3 C 7,8 C 84 % 995,1 hPa 0,0 l/m 0 min 0 min 0 W/m 22,5 km/h (4 Bft) 93,48 %
20.12.2019 03:48 9,3 C 8,3 C 7,8 C 84 % 995,0 hPa 0,0 l/m 0 min 0 min 0 W/m 22,5 km/h (4 Bft) 97,87 %
20.12.2019 03:50 9,3 C 8,3 C 7,8 C 84 % 995,1 hPa 0,0 l/m 0 min 0 min 0 W/m 22,5 km/h (4 Bft) 97,87 %
20.12.2019 03:52 9,3 C 8,3 C 7,8 C 84 % 995,1 hPa 0,0 l/m 0 min 0 min 0 W/m 25,7 km/h (4 Bft) 97,87 %
20.12.2019 03:54 9,3 C 8,3 C 7,8 C 84 % 994,9 hPa 0,0 l/m 0 min 0 min 0 W/m 25,7 km/h (4 Bft) 97,62 %
20.12.2019 03:56 9,3 C 8,3 C 7,8 C 84 % 995,0 hPa 0,0 l/m 0 min 0 min 0 W/m 45,1 km/h (6 Bft) 95,65 %
20.12.2019 03:58 9,3 C 8,3 C 7,8 C 84 % 995,0 hPa 0,0 l/m 0 min 0 min 0 W/m 25,7 km/h (4 Bft) 98,08 %
20.12.2019 04:00 9,3 C 8,3 C 7,8 C 84 % 995,0 hPa 0,0 l/m 0 min 0 min 0 W/m 35,4 km/h (5 Bft) 97,67 %
20.12.2019 04:02 9,3 C 8,3 C 7,8 C 84 % 994,9 hPa 0,0 l/m 0 min 0 min 0 W/m 25,7 km/h (4 Bft) 100,00 %
20.12.2019 04:04 9,2 C 8,3 C 7,8 C 84 % 994,8 hPa 0,0 l/m 0 min 0 min 0 W/m 25,7 km/h (4 Bft) 95,74 %
20.12.2019 04:06 9,2 C 8,3 C 7,8 C 84 % 994,9 hPa 0,0 l/m 0 min 0 min 0 W/m 35,4 km/h (5 Bft) 95,74 %
20.12.2019 04:08 9,2 C 8,3 C 7,8 C 84 % 994,7 hPa 0,0 l/m 0 min 0 min 0 W/m 32,2 km/h (5 Bft) 94,34 %
20.12.2019 04:10 9,2 C 8,3 C 7,8 C 84 % 994,6 hPa 0,0 l/m 0 min 0 min 0 W/m 29,0 km/h (5 Bft) 97,87 %
20.12.2019 04:12 9,2 C 8,3 C 7,8 C 84 % 994,5 hPa 0,0 l/m 0 min 0 min 0 W/m 29,0 km/h (5 Bft) 97,87 %
20.12.2019 04:14 9,2 C 8,3 C 7,8 C 84 % 994,4 hPa 0,0 l/m 0 min 0 min 0 W/m 29,0 km/h (5 Bft) 97,87 %
20.12.2019 04:16 9,2 C 8,3 C 7,8 C 84 % 994,5 hPa 0,0 l/m 0 min 0 min 0 W/m 22,5 km/h (4 Bft) 97,87 %
20.12.2019 04:18 9,2 C 8,3 C 7,8 C 84 % 994,5 hPa 0,0 l/m 0 min 0 min 0 W/m 29,0 km/h (5 Bft) 97,87 %
20.12.2019 04:20 9,1 C 8,3 C 7,8 C 84 % 994,5 hPa 0,0 l/m 0 min 0 min 0 W/m 25,7 km/h (4 Bft) 95,65 %
20.12.2019 04:22 9,1 C 8,3 C 7,8 C 84 % 994,4 hPa 0,0 l/m 0 min 0 min 0 W/m 25,7 km/h (4 Bft) 95,74 %
20.12.2019 04:24 9,1 C 8,3 C 7,8 C 84 % 994,4 hPa 0,0 l/m 0 min 0 min 0 W/m 29,0 km/h (5 Bft) 97,87 %
20.12.2019 04:26 9,1 C 8,3 C 7,8 C 84 % 994,4 hPa 0,0 l/m 0 min 0 min 0 W/m 29,0 km/h (5 Bft) 97,87 %
20.12.2019 04:28 9,1 C 8,3 C 7,8 C 84 % 994,3 hPa 0,0 l/m 0 min 0 min 0 W/m 25,7 km/h (4 Bft) 97,87 %
20.12.2019 04:30 9,1 C 8,3 C 7,8 C 84 % 994,2 hPa 0,0 l/m 0 min 0 min 0 W/m 25,7 km/h (4 Bft) 97,87 %
20.12.2019 04:32 9,1 C 8,3 C 7,8 C 84 % 994,1 hPa 0,0 l/m 0 min 0 min 0 W/m 25,7 km/h (4 Bft) 95,65 %
20.12.2019 04:34 9,1 C 8,3 C 7,8 C 84 % 994,1 hPa 0,0 l/m 0 min 0 min 0 W/m 29,0 km/h (5 Bft) 95,74 %
20.12.2019 04:36 9,1 C 8,3 C 7,8 C 84 % 994,1 hPa 0,0 l/m 0 min 0 min 0 W/m 29,0 km/h (5 Bft) 97,87 %
20.12.2019 04:38 9,1 C 8,3 C 7,8 C 84 % 994,0 hPa 0,0 l/m 0 min 0 min 0 W/m 32,2 km/h (5 Bft) 97,87 %
20.12.2019 04:40 9,2 C 8,3 C 7,8 C 84 % 994,0 hPa 0,0 l/m 0 min 0 min 0 W/m 35,4 km/h (5 Bft) 97,87 %
20.12.2019 04:42 9,2 C 8,3 C 7,8 C 84 % 994,0 hPa 0,0 l/m 0 min 0 min 0 W/m 25,7 km/h (4 Bft) 97,83 %
20.12.2019 04:44 9,2 C 8,3 C 7,8 C 84 % 993,9 hPa 0,0 l/m 0 min 0 min 0 W/m 35,4 km/h (5 Bft) 97,87 %
20.12.2019 04:46 9,2 C 8,3 C 7,8 C 84 % 993,8 hPa 0,0 l/m 0 min 0 min 0 W/m 45,1 km/h (6 Bft) 95,74 %
20.12.2019 04:48 9,2 C 8,3 C 7,8 C 84 % 993,8 hPa 0,0 l/m 0 min 0 min 0 W/m 29,0 km/h (5 Bft) 97,87 %
20.12.2019 04:50 9,2 C 8,3 C 7,8 C 84 % 993,7 hPa 0,0 l/m 0 min 0 min 0 W/m 22,5 km/h (4 Bft) 97,87 %
20.12.2019 04:52 9,2 C 8,3 C 7,8 C 84 % 993,7 hPa 0,0 l/m 0 min 0 min 0 W/m 38,6 km/h (5 Bft) 97,87 %
20.12.2019 04:54 9,2 C 8,3 C 7,8 C 84 % 993,7 hPa 0,0 l/m 0 min 0 min 0 W/m 29,0 km/h (5 Bft) 97,83 %
20.12.2019 04:56 9,3 C 8,3 C 7,8 C 84 % 993,7 hPa 0,0 l/m 0 min 0 min 0 W/m 29,0 km/h (5 Bft) 97,87 %
20.12.2019 04:58 9,3 C 8,3 C 7,8 C 84 % 993,6 hPa 0,0 l/m 0 min 0 min 0 W/m 38,6 km/h (5 Bft) 97,87 %
20.12.2019 05:00 9,3 C 8,3 C 7,8 C 83 % 993,6 hPa 0,0 l/m 0 min 0 min 0 W/m 25,7 km/h (4 Bft) 97,87 %
20.12.2019 05:02 9,3 C 8,3 C 7,8 C 84 % 993,5 hPa 0,0 l/m 0 min 0 min 0 W/m 25,7 km/h (4 Bft) 97,87 %
20.12.2019 05:04 9,3 C 8,3 C 7,8 C 84 % 993,5 hPa 0,0 l/m 0 min 0 min 0 W/m 22,5 km/h (4 Bft) 97,87 %
20.12.2019 05:06 9,3 C 8,3 C 7,8 C 84 % 993,5 hPa 0,0 l/m 0 min 0 min 0 W/m 29,0 km/h (5 Bft) 95,65 %
20.12.2019 05:08 9,3 C 8,3 C 7,8 C 84 % 993,5 hPa 0,0 l/m 0 min 0 min 0 W/m 25,7 km/h (4 Bft) 97,87 %
20.12.2019 05:10 9,3 C 8,3 C 7,8 C 83 % 993,6 hPa 0,0 l/m 0 min 0 min 0 W/m 41,8 km/h (6 Bft) 100,00 %
20.12.2019 05:12 9,3 C 8,3 C 7,8 C 83 % 993,6 hPa 0,0 l/m 0 min 0 min 0 W/m 38,6 km/h (5 Bft) 100,00 %
20.12.2019 05:14 9,3 C 8,3 C 7,8 C 83 % 993,5 hPa 0,0 l/m 0 min 0 min 0 W/m 25,7 km/h (4 Bft) 100,00 %
20.12.2019 05:16 9,3 C 8,3 C 7,8 C 83 % 993,4 hPa 0,0 l/m 0 min 0 min 0 W/m 25,7 km/h (4 Bft) 100,00 %
20.12.2019 05:18 9,3 C 8,3 C 7,8 C 83 % 993,4 hPa 0,0 l/m 0 min 0 min 0 W/m 29,0 km/h (5 Bft) 100,00 %
20.12.2019 05:20 9,3 C 8,3 C 7,8 C 83 % 993,3 hPa 0,0 l/m 0 min 0 min 0 W/m 25,7 km/h (4 Bft) 100,00 %
20.12.2019 05:22 9,3 C 8,3 C 7,8 C 83 % 993,2 hPa 0,0 l/m 0 min 0 min 0 W/m 22,5 km/h (4 Bft) 100,00 %
20.12.2019 05:24 9,3 C 8,3 C 7,8 C 83 % 993,2 hPa 0,0 l/m 0 min 0 min 0 W/m 22,5 km/h (4 Bft) 100,00 %
20.12.2019 05:26 9,2 C 8,3 C 7,8 C 83 % 993,1 hPa 0,0 l/m 0 min 0 min 0 W/m 25,7 km/h (4 Bft) 100,00 %
20.12.2019 05:28 9,2 C 8,3 C 7,8 C 83 % 993,1 hPa 0,0 l/m 0 min 0 min 0 W/m 22,5 km/h (4 Bft) 100,00 %
20.12.2019 05:30 9,2 C 8,3 C 7,8 C 83 % 993,1 hPa 0,0 l/m 0 min 0 min 0 W/m 19,3 km/h (3 Bft) 97,87 %
20.12.2019 05:32 9,2 C 8,3 C 7,8 C 84 % 993,1 hPa 0,0 l/m 0 min 0 min 0 W/m 16,1 km/h (3 Bft) 100,00 %
20.12.2019 05:34 9,2 C 8,3 C 7,8 C 84 % 993,1 hPa 0,0 l/m 0 min 0 min 0 W/m 19,3 km/h (3 Bft) 100,00 %
20.12.2019 05:36 9,2 C 8,3 C 7,8 C 83 % 993,0 hPa 0,0 l/m 0 min 0 min 0 W/m 29,0 km/h (5 Bft) 100,00 %
20.12.2019 05:38 9,2 C 8,3 C 7,8 C 83 % 993,0 hPa 0,0 l/m 0 min 0 min 0 W/m 22,5 km/h (4 Bft) 100,00 %
20.12.2019 05:40 9,2 C 8,3 C 7,8 C 83 % 993,0 hPa 0,0 l/m 0 min 0 min 0 W/m 19,3 km/h (3 Bft) 100,00 %
20.12.2019 05:42 9,2 C 8,3 C 7,8 C 83 % 992,9 hPa 0,0 l/m 0 min 0 min 0 W/m 29,0 km/h (5 Bft) 97,87 %
20.12.2019 05:44 9,2 C 8,3 C 7,8 C 83 % 992,9 hPa 0,0 l/m 0 min 0 min 0 W/m 22,5 km/h (4 Bft) 100,00 %
20.12.2019 05:46 9,2 C 8,3 C 7,8 C 83 % 992,8 hPa 0,0 l/m 0 min 0 min 0 W/m 19,3 km/h (3 Bft) 100,00 %
20.12.2019 05:48 9,2 C 8,3 C 7,8 C 84 % 992,8 hPa 0,0 l/m 0 min 0 min 0 W/m 25,7 km/h (4 Bft) 100,00 %
20.12.2019 05:50 9,2 C 8,3 C 7,8 C 84 % 992,7 hPa 0,0 l/m 0 min 0 min 0 W/m 19,3 km/h (3 Bft) 100,00 %
20.12.2019 05:52 9,2 C 8,3 C 7,8 C 84 % 992,8 hPa 0,0 l/m 0 min 0 min 0 W/m 22,5 km/h (4 Bft) 97,83 %
20.12.2019 05:54 9,2 C 8,3 C 7,8 C 84 % 992,7 hPa 0,0 l/m 0 min 0 min 0 W/m 19,3 km/h (3 Bft) 100,00 %
20.12.2019 05:56 9,1 C 8,3 C 7,8 C 84 % 992,7 hPa 0,0 l/m 0 min 0 min 0 W/m 22,5 km/h (4 Bft) 100,00 %
20.12.2019 05:58 9,1 C 8,3 C 7,8 C 84 % 992,7 hPa 0,0 l/m 0 min 0 min 0 W/m 25,7 km/h (4 Bft) 100,00 %
20.12.2019 06:00 9,1 C 8,3 C 7,8 C 84 % 992,6 hPa 0,0 l/m 0 min 0 min 0 W/m 38,6 km/h (5 Bft) 100,00 %
20.12.2019 06:02 9,1 C 8,3 C 7,8 C 84 % 992,5 hPa 0,0 l/m 0 min 0 min 0 W/m 19,3 km/h (3 Bft) 97,87 %
20.12.2019 06:04 9,1 C 8,3 C 7,8 C 84 % 992,6 hPa 0,0 l/m 0 min 0 min 0 W/m 25,7 km/h (4 Bft) 100,00 %
20.12.2019 06:08 9,1 C 8,3 C 7,8 C 84 % 992,4 hPa 0,0 l/m 0 min 0 min 0 W/m 29,0 km/h (5 Bft) 100,00 %
20.12.2019 06:10 9,1 C 8,3 C 7,8 C 83 % 992,4 hPa 0,0 l/m 0 min 0 min 0 W/m 32,2 km/h (5 Bft) 97,87 %
20.12.2019 06:12 9,1 C 8,3 C 7,8 C 83 % 992,3 hPa 0,0 l/m 0 min 0 min 0 W/m 29,0 km/h (5 Bft) 95,74 %
20.12.2019 06:14 9,1 C 8,3 C 7,8 C 83 % 992,3 hPa 0,0 l/m 0 min 0 min 0 W/m 35,4 km/h (5 Bft) 95,74 %
20.12.2019 06:16 9,1 C 8,3 C 7,8 C 83 % 992,3 hPa 0,0 l/m 0 min 0 min 0 W/m 29,0 km/h (5 Bft) 95,65 %
20.12.2019 06:18 9,1 C 8,3 C 7,8 C 83 % 992,2 hPa 0,0 l/m 0 min 0 min 0 W/m 25,7 km/h (4 Bft) 95,74 %
20.12.2019 06:20 9,1 C 8,3 C 7,8 C 83 % 992,2 hPa 0,0 l/m 0 min 0 min 0 W/m 22,5 km/h (4 Bft) 93,62 %
20.12.2019 06:22 9,1 C 8,3 C 7,8 C 83 % 992,1 hPa 0,0 l/m 0 min 0 min 0 W/m 25,7 km/h (4 Bft) 95,74 %
20.12.2019 06:24 9,1 C 8,3 C 7,8 C 83 % 992,1 hPa 0,0 l/m 0 min 0 min 0 W/m 29,0 km/h (5 Bft) 95,74 %
20.12.2019 06:26 9,1 C 8,3 C 7,8 C 83 % 992,1 hPa 0,0 l/m 0 min 0 min 0 W/m 35,4 km/h (5 Bft) 95,74 %
20.12.2019 06:28 9,1 C 8,3 C 7,8 C 83 % 992,1 hPa 0,0 l/m 0 min 0 min 0 W/m 32,2 km/h (5 Bft) 95,65 %
20.12.2019 06:30 9,1 C 8,3 C 7,8 C 83 % 992,0 hPa 0,0 l/m 0 min 0 min 0 W/m 35,4 km/h (5 Bft) 95,74 %
20.12.2019 06:32 9,1 C 8,3 C 7,8 C 83 % 991,9 hPa 0,0 l/m 0 min 0 min 0 W/m 35,4 km/h (5 Bft) 95,74 %
20.12.2019 06:34 9,1 C 8,3 C 7,8 C 83 % 991,8 hPa 0,0 l/m 0 min 0 min 0 W/m 35,4 km/h (5 Bft) 95,74 %
20.12.2019 06:36 9,1 C 8,3 C 7,8 C 83 % 991,7 hPa 0,0 l/m 0 min 0 min 0 W/m 35,4 km/h (5 Bft) 95,74 %
20.12.2019 06:38 9,1 C 8,3 C 7,8 C 83 % 991,8 hPa 0,0 l/m 0 min 0 min 0 W/m 35,4 km/h (5 Bft) 93,48 %
20.12.2019 06:40 9,1 C 8,3 C 7,8 C 83 % 991,7 hPa 0,0 l/m 0 min 0 min 0 W/m 32,2 km/h (5 Bft) 95,74 %
20.12.2019 06:42 9,1 C 8,3 C 7,8 C 83 % 991,7 hPa 0,0 l/m 0 min 0 min 0 W/m 35,4 km/h (5 Bft) 91,49 %
20.12.2019 06:44 9,1 C 8,3 C 7,8 C 83 % 991,7 hPa 0,0 l/m 0 min 0 min 0 W/m 25,7 km/h (4 Bft) 93,62 %
20.12.2019 06:46 9,1 C 8,3 C 7,8 C 83 % 991,6 hPa 0,0 l/m 0 min 0 min 0 W/m 29,0 km/h (5 Bft) 93,62 %
20.12.2019 06:48 9,0 C 8,3 C 7,2 C 83 % 991,6 hPa 0,0 l/m 0 min 0 min 0 W/m 25,7 km/h (4 Bft) 95,74 %
20.12.2019 06:50 9,0 C 8,3 C 7,2 C 83 % 991,4 hPa 0,0 l/m 0 min 0 min 0 W/m 29,0 km/h (5 Bft) 93,48 %
20.12.2019 06:52 8,9 C 8,3 C 7,8 C 83 % 991,5 hPa 0,0 l/m 0 min 0 min 0 W/m 32,2 km/h (5 Bft) 95,74 %
20.12.2019 06:54 8,9 C 8,3 C 7,2 C 83 % 991,5 hPa 0,0 l/m 0 min 0 min 0 W/m 19,3 km/h (3 Bft) 93,62 %
20.12.2019 06:56 8,9 C 7,8 C 7,2 C 83 % 991,3 hPa 0,0 l/m 0 min 0 min 0 W/m 29,0 km/h (5 Bft) 91,49 %
20.12.2019 06:58 8,9 C 7,8 C 7,2 C 83 % 991,3 hPa 0,0 l/m 0 min 0 min 0 W/m 35,4 km/h (5 Bft) 97,87 %
20.12.2019 07:00 8,9 C 7,8 C 7,2 C 83 % 991,2 hPa 0,0 l/m 0 min 0 min 0 W/m 22,5 km/h (4 Bft) 97,87 %
20.12.2019 07:02 8,9 C 7,8 C 7,2 C 84 % 991,3 hPa 0,0 l/m 0 min 0 min 0 W/m 22,5 km/h (4 Bft) 95,65 %
20.12.2019 07:04 8,8 C 7,8 C 7,2 C 84 % 991,1 hPa 0,0 l/m 0 min 0 min 0 W/m 22,5 km/h (4 Bft) 93,62 %
20.12.2019 07:06 8,8 C 7,8 C 7,2 C 84 % 991,1 hPa 0,0 l/m 0 min 0 min 0 W/m 25,7 km/h (4 Bft) 93,62 %
20.12.2019 07:08 8,8 C 7,8 C 7,2 C 84 % 991,1 hPa 0,0 l/m 0 min 0 min 0 W/m 29,0 km/h (5 Bft) 97,87 %
20.12.2019 07:10 8,8 C 7,8 C 7,2 C 84 % 991,2 hPa 0,0 l/m 0 min 0 min 0 W/m 35,4 km/h (5 Bft) 97,87 %
20.12.2019 07:12 8,8 C 7,8 C 7,2 C 84 % 991,1 hPa 0,0 l/m 0 min 0 min 0 W/m 25,7 km/h (4 Bft) 93,62 %
20.12.2019 07:14 8,8 C 7,8 C 7,2 C 84 % 991,1 hPa 0,0 l/m 0 min 0 min 0 W/m 25,7 km/h (4 Bft) 97,83 %
20.12.2019 07:16 8,8 C 7,8 C 7,2 C 84 % 991,0 hPa 0,0 l/m 0 min 0 min 0 W/m 22,5 km/h (4 Bft) 97,87 %
20.12.2019 07:18 8,8 C 7,8 C 7,2 C 84 % 991,1 hPa 0,0 l/m 0 min 0 min 0 W/m 29,0 km/h (5 Bft) 97,87 %
20.12.2019 07:20 8,8 C 7,8 C 7,2 C 84 % 990,9 hPa 0,0 l/m 0 min 0 min 0 W/m 29,0 km/h (5 Bft) 93,62 %
20.12.2019 07:22 8,8 C 7,8 C 7,2 C 84 % 991,0 hPa 0,0 l/m 0 min 0 min 0 W/m 35,4 km/h (5 Bft) 97,87 %
20.12.2019 07:24 8,7 C 7,8 C 7,2 C 84 % 991,0 hPa 0,0 l/m 0 min 0 min 0 W/m 32,2 km/h (5 Bft) 97,87 %
20.12.2019 07:26 8,8 C 8,3 C 7,8 C 84 % 990,9 hPa 0,0 l/m 0 min 0 min 0 W/m 35,4 km/h (5 Bft) 95,65 %
20.12.2019 07:28 8,8 C 8,3 C 7,8 C 84 % 990,9 hPa 0,0 l/m 0 min 0 min 0 W/m 29,0 km/h (5 Bft) 97,87 %
20.12.2019 07:30 8,8 C 8,3 C 7,8 C 84 % 990,8 hPa 0,0 l/m 0 min 0 min 0 W/m 25,7 km/h (4 Bft) 95,74 %
20.12.2019 07:32 8,8 C 8,3 C 7,8 C 84 % 990,7 hPa 0,0 l/m 0 min 0 min 0 W/m 32,2 km/h (5 Bft) 95,74 %
20.12.2019 07:34 8,8 C 8,3 C 7,8 C 84 % 990,8 hPa 0,0 l/m 0 min 0 min 0 W/m 45,1 km/h (6 Bft) 97,87 %
20.12.2019 07:36 8,8 C 8,3 C 7,8 C 84 % 990,8 hPa 0,0 l/m 0 min 0 min 0 W/m 25,7 km/h (4 Bft) 97,87 %
20.12.2019 07:38 8,8 C 8,3 C 7,8 C 84 % 990,5 hPa 0,0 l/m 0 min 0 min 0 W/m 35,4 km/h (5 Bft) 97,83 %
20.12.2019 07:40 8,8 C 8,3 C 7,8 C 84 % 990,5 hPa 0,0 l/m 0 min 0 min 0 W/m 29,0 km/h (5 Bft) 97,87 %
20.12.2019 07:42 8,8 C 8,3 C 7,8 C 83 % 990,6 hPa 0,0 l/m 0 min 0 min 0 W/m 25,7 km/h (4 Bft) 97,87 %
20.12.2019 07:44 8,8 C 8,3 C 7,8 C 83 % 990,6 hPa 0,0 l/m 0 min 0 min 0 W/m 25,7 km/h (4 Bft) 97,87 %
20.12.2019 07:46 8,8 C 8,3 C 7,8 C 83 % 990,6 hPa 0,0 l/m 0 min 0 min 0 W/m 29,0 km/h (5 Bft) 97,87 %
20.12.2019 07:48 8,9 C 8,3 C 7,8 C 83 % 990,5 hPa 0,0 l/m 0 min 0 min 0 W/m 22,5 km/h (4 Bft) 97,83 %
20.12.2019 07:50 8,9 C 8,3 C 7,8 C 83 % 990,5 hPa 0,0 l/m 0 min 0 min 0 W/m 38,6 km/h (5 Bft) 97,87 %
20.12.2019 07:52 8,9 C 8,3 C 7,8 C 83 % 990,5 hPa 0,0 l/m 0 min 0 min 0 W/m 25,7 km/h (4 Bft) 95,74 %
20.12.2019 07:54 8,9 C 8,3 C 7,8 C 83 % 990,3 hPa 0,0 l/m 0 min 0 min 0 W/m 35,4 km/h (5 Bft) 97,87 %
20.12.2019 07:56 8,9 C 8,3 C 7,8 C 83 % 990,3 hPa 0,0 l/m 0 min 0 min 0 W/m 29,0 km/h (5 Bft) 98,00 %
20.12.2019 07:58 8,9 C 8,3 C 7,8 C 83 % 990,3 hPa 0,0 l/m 0 min 0 min 0 W/m 29,0 km/h (5 Bft) 97,87 %
20.12.2019 08:00 8,9 C 8,3 C 7,8 C 83 % 990,3 hPa 0,0 l/m 0 min 0 min 0 W/m 22,5 km/h (4 Bft) 100,00 %
20.12.2019 08:02 8,9 C 8,3 C 7,8 C 83 % 990,1 hPa 0,0 l/m 0 min 0 min 0 W/m 25,7 km/h (4 Bft) 100,00 %
20.12.2019 08:04 8,9 C 8,3 C 7,8 C 83 % 990,1 hPa 0,0 l/m 0 min 0 min 0 W/m 25,7 km/h (4 Bft) 97,87 %
20.12.2019 08:06 8,9 C 8,3 C 7,8 C 83 % 990,1 hPa 0,0 l/m 0 min 0 min 0 W/m 25,7 km/h (4 Bft) 100,00 %
20.12.2019 08:08 8,9 C 8,3 C 7,8 C 83 % 990,0 hPa 0,0 l/m 0 min 0 min 0 W/m 35,4 km/h (5 Bft) 100,00 %
20.12.2019 08:10 8,9 C 8,3 C 7,8 C 83 % 989,9 hPa 0,0 l/m 0 min 0 min 0 W/m 25,7 km/h (4 Bft) 100,00 %
20.12.2019 08:12 8,9 C 8,3 C 7,8 C 83 % 989,9 hPa 0,0 l/m 0 min 0 min 0 W/m 38,6 km/h (5 Bft) 100,00 %
20.12.2019 08:14 8,9 C 8,3 C 7,8 C 83 % 989,8 hPa 0,0 l/m 0 min 0 min 0 W/m 22,5 km/h (4 Bft) 100,00 %
20.12.2019 08:16 8,9 C 8,3 C 7,8 C 83 % 989,8 hPa 0,0 l/m 0 min 0 min 0 W/m 38,6 km/h (5 Bft) 100,00 %
20.12.2019 08:18 8,9 C 8,3 C 7,8 C 83 % 989,8 hPa 0,0 l/m 0 min 0 min 0 W/m 38,6 km/h (5 Bft) 100,00 %
20.12.2019 08:20 8,9 C 8,3 C 7,8 C 83 % 989,8 hPa 0,0 l/m 0 min 0 min 0 W/m 35,4 km/h (5 Bft) 100,00 %
20.12.2019 08:22 8,9 C 8,3 C 7,8 C 83 % 989,9 hPa 0,0 l/m 0 min 0 min 0 W/m 38,6 km/h (5 Bft) 100,00 %
20.12.2019 08:24 9,0 C 8,3 C 7,8 C 82 % 989,8 hPa 0,0 l/m 0 min 0 min 0 W/m 29,0 km/h (5 Bft) 100,00 %
20.12.2019 08:26 9,0 C 8,3 C 7,8 C 82 % 989,8 hPa 0,0 l/m 0 min 0 min 0 W/m 29,0 km/h (5 Bft) 100,00 %
20.12.2019 08:28 9,0 C 8,3 C 7,8 C 83 % 989,7 hPa 0,0 l/m 0 min 0 min 0 W/m 29,0 km/h (5 Bft) 45,95 %
20.12.2019 08:30 9,0 C 8,3 C 7,8 C 83 % 989,9 hPa 0,0 l/m 0 min 0 min 0 W/m 32,2 km/h (5 Bft) 100,00 %
20.12.2019 08:32 9,0 C 8,3 C 7,8 C 83 % 989,9 hPa 0,0 l/m 0 min 0 min 0 W/m 29,0 km/h (5 Bft) 100,00 %
20.12.2019 08:34 9,0 C 8,3 C 7,8 C 83 % 989,8 hPa 0,0 l/m 0 min 0 min 0 W/m 38,6 km/h (5 Bft) 100,00 %
20.12.2019 08:36 9,0 C 8,3 C 7,8 C 82 % 989,8 hPa 0,0 l/m 0 min 0 min 0 W/m 32,2 km/h (5 Bft) 100,00 %
20.12.2019 08:38 9,0 C 8,3 C 7,8 C 82 % 989,7 hPa 0,0 l/m 0 min 0 min 0 W/m 25,7 km/h (4 Bft) 100,00 %
20.12.2019 08:40 9,0 C 8,3 C 7,8 C 82 % 989,8 hPa 0,0 l/m 0 min 0 min 0 W/m 35,4 km/h (5 Bft) 100,00 %
20.12.2019 08:42 9,0 C 8,3 C 7,8 C 83 % 989,7 hPa 0,0 l/m 0 min 0 min 0 W/m 35,4 km/h (5 Bft) 97,87 %
20.12.2019 08:44 9,0 C 8,3 C 7,8 C 83 % 989,7 hPa 0,0 l/m 0 min 0 min 0 W/m 32,2 km/h (5 Bft) 100,00 %
20.12.2019 08:46 8,9 C 8,3 C 7,8 C 83 % 989,7 hPa 0,0 l/m 0 min 0 min 0 W/m 29,0 km/h (5 Bft) 100,00 %
20.12.2019 08:48 8,9 C 8,3 C 7,8 C 83 % 989,7 hPa 0,0 l/m 0 min 0 min 0 W/m 29,0 km/h (5 Bft) 100,00 %
20.12.2019 08:50 8,9 C 8,3 C 7,8 C 83 % 989,6 hPa 0,0 l/m 0 min 0 min 4 W/m 25,7 km/h (4 Bft) 100,00 %
20.12.2019 08:52 9,0 C 8,3 C 7,8 C 83 % 989,7 hPa 0,0 l/m 0 min 0 min 6 W/m 45,1 km/h (6 Bft) 97,87 %
20.12.2019 08:54 9,0 C 8,3 C 7,8 C 83 % 989,6 hPa 0,0 l/m 0 min 0 min 8 W/m 25,7 km/h (4 Bft) 95,74 %
20.12.2019 08:56 9,0 C 8,3 C 7,8 C 83 % 989,5 hPa 0,0 l/m 0 min 0 min 11 W/m 32,2 km/h (5 Bft) 95,74 %
20.12.2019 08:58 9,0 C 8,3 C 7,8 C 83 % 989,5 hPa 0,0 l/m 0 min 0 min 12 W/m 32,2 km/h (5 Bft) 97,83 %
20.12.2019 09:00 9,0 C 8,3 C 7,8 C 83 % 989,3 hPa 0,0 l/m 0 min 0 min 14 W/m 32,2 km/h (5 Bft) 97,87 %
20.12.2019 09:02 9,0 C 8,3 C 7,8 C 83 % 989,2 hPa 0,0 l/m 0 min 0 min 16 W/m 29,0 km/h (5 Bft) 97,87 %
20.12.2019 09:04 9,1 C 8,3 C 7,8 C 83 % 989,3 hPa 0,0 l/m 0 min 0 min 16 W/m 22,5 km/h (4 Bft) 97,87 %
20.12.2019 09:06 9,1 C 8,3 C 7,8 C 83 % 989,2 hPa 0,0 l/m 0 min 0 min 18 W/m 25,7 km/h (4 Bft) 97,87 %
20.12.2019 09:08 9,1 C 8,3 C 7,8 C 83 % 989,1 hPa 0,0 l/m 0 min 0 min 18 W/m 35,4 km/h (5 Bft) 97,87 %
20.12.2019 09:10 9,1 C 8,3 C 7,8 C 83 % 989,1 hPa 0,0 l/m 0 min 0 min 19 W/m 22,5 km/h (4 Bft) 97,83 %
20.12.2019 09:12 9,1 C 8,3 C 7,8 C 83 % 989,1 hPa 0,0 l/m 0 min 0 min 19 W/m 25,7 km/h (4 Bft) 97,87 %
20.12.2019 09:14 9,1 C 8,3 C 7,8 C 83 % 989,0 hPa 0,0 l/m 0 min 0 min 19 W/m 32,2 km/h (5 Bft) 95,74 %
20.12.2019 09:16 9,1 C 8,3 C 7,8 C 83 % 988,9 hPa 0,0 l/m 0 min 0 min 19 W/m 38,6 km/h (5 Bft) 97,87 %
20.12.2019 09:18 9,1 C 8,3 C 7,8 C 83 % 988,9 hPa 0,0 l/m 0 min 0 min 19 W/m 22,5 km/h (4 Bft) 97,87 %
20.12.2019 09:20 9,1 C 8,3 C 7,8 C 83 % 988,8 hPa 0,0 l/m 0 min 0 min 19 W/m 29,0 km/h (5 Bft) 97,83 %
20.12.2019 09:22 9,1 C 8,3 C 7,8 C 83 % 988,8 hPa 0,0 l/m 0 min 0 min 19 W/m 29,0 km/h (5 Bft) 97,87 %
20.12.2019 09:24 9,1 C 8,3 C 7,8 C 83 % 988,9 hPa 0,0 l/m 0 min 0 min 19 W/m 22,5 km/h (4 Bft) 97,87 %
20.12.2019 09:26 9,1 C 8,3 C 7,8 C 83 % 988,8 hPa 0,0 l/m 0 min 0 min 18 W/m 25,7 km/h (4 Bft) 97,87 %
20.12.2019 09:28 9,1 C 8,3 C 7,8 C 83 % 988,8 hPa 0,0 l/m 0 min 0 min 16 W/m 22,5 km/h (4 Bft) 97,87 %
20.12.2019 09:30 9,1 C 8,3 C 7,8 C 83 % 988,7 hPa 0,0 l/m 0 min 0 min 14 W/m 29,0 km/h (5 Bft) 95,74 %
20.12.2019 09:32 9,1 C 8,3 C 7,8 C 83 % 988,8 hPa 0,0 l/m 0 min 0 min 14 W/m 25,7 km/h (4 Bft) 97,83 %
20.12.2019 09:34 9,2 C 8,3 C 7,8 C 83 % 988,7 hPa 0,0 l/m 0 min 0 min 15 W/m 22,5 km/h (4 Bft) 95,74 %
20.12.2019 09:36 9,2 C 8,9 C 7,8 C 82 % 988,7 hPa 0,0 l/m 0 min 0 min 16 W/m 25,7 km/h (4 Bft) 95,74 %
20.12.2019 09:38 9,2 C 8,9 C 8,3 C 82 % 988,6 hPa 0,0 l/m 0 min 0 min 16 W/m 25,7 km/h (4 Bft) 97,87 %
20.12.2019 09:40 9,2 C 8,9 C 8,3 C 82 % 988,7 hPa 0,0 l/m 0 min 0 min 14 W/m 41,8 km/h (6 Bft) 97,87 %
20.12.2019 09:42 9,2 C 8,9 C 8,3 C 82 % 988,6 hPa 0,0 l/m 0 min 0 min 12 W/m 22,5 km/h (4 Bft) 95,74 %
20.12.2019 09:44 9,3 C 8,9 C 8,3 C 82 % 988,7 hPa 0,0 l/m 0 min 0 min 15 W/m 35,4 km/h (5 Bft) 97,83 %
20.12.2019 09:46 9,3 C 8,9 C 8,3 C 82 % 988,6 hPa 0,0 l/m 0 min 0 min 17 W/m 29,0 km/h (5 Bft) 95,74 %
20.12.2019 09:48 9,3 C 9,4 C 8,3 C 82 % 988,5 hPa 0,0 l/m 0 min 0 min 19 W/m 35,4 km/h (5 Bft) 95,74 %
20.12.2019 09:50 9,4 C 9,4 C 8,9 C 82 % 988,6 hPa 0,0 l/m 0 min 0 min 18 W/m 35,4 km/h (5 Bft) 95,74 %
20.12.2019 09:52 9,5 C 9,4 C 8,9 C 82 % 988,6 hPa 0,0 l/m 0 min 0 min 15 W/m 35,4 km/h (5 Bft) 95,74 %
20.12.2019 09:54 9,6 C 9,4 C 8,9 C 82 % 988,6 hPa 0,0 l/m 0 min 0 min 14 W/m 29,0 km/h (5 Bft) 95,74 %
20.12.2019 09:56 9,6 C 9,4 C 8,9 C 82 % 988,6 hPa 0,0 l/m 0 min 0 min 15 W/m 38,6 km/h (5 Bft) 95,65 %
20.12.2019 09:58 9,7 C 9,4 C 8,9 C 81 % 988,7 hPa 0,0 l/m 0 min 0 min 16 W/m 38,6 km/h (5 Bft) 97,87 %
20.12.2019 10:00 9,7 C 9,4 C 8,9 C 81 % 988,6 hPa 0,0 l/m 0 min 0 min 17 W/m 25,7 km/h (4 Bft) 93,62 %
20.12.2019 10:02 9,7 C 9,4 C 8,9 C 82 % 988,6 hPa 0,0 l/m 0 min 0 min 19 W/m 45,1 km/h (6 Bft) 95,74 %
20.12.2019 10:04 9,7 C 9,4 C 8,9 C 81 % 988,6 hPa 0,0 l/m 0 min 0 min 22 W/m 29,0 km/h (5 Bft) 93,62 %
20.12.2019 10:06 9,8 C 9,4 C 8,9 C 81 % 988,6 hPa 0,0 l/m 0 min 0 min 25 W/m 29,0 km/h (5 Bft) 95,65 %
20.12.2019 10:08 9,8 C 9,4 C 8,9 C 81 % 988,6 hPa 0,0 l/m 0 min 0 min 26 W/m 38,6 km/h (5 Bft) 95,74 %
20.12.2019 10:10 9,8 C 9,4 C 8,9 C 81 % 988,6 hPa 0,0 l/m 0 min 0 min 26 W/m 35,4 km/h (5 Bft) 93,62 %
20.12.2019 10:12 9,8 C 9,4 C 8,9 C 80 % 988,6 hPa 0,0 l/m 0 min 0 min 27 W/m 29,0 km/h (5 Bft) 93,62 %
20.12.2019 10:14 9,8 C 9,4 C 8,9 C 80 % 988,6 hPa 0,0 l/m 0 min 0 min 28 W/m 35,4 km/h (5 Bft) 95,74 %
20.12.2019 10:16 9,8 C 9,4 C 8,9 C 80 % 988,6 hPa 0,0 l/m 0 min 0 min 27 W/m 35,4 km/h (5 Bft) 95,74 %
20.12.2019 10:18 9,8 C 9,4 C 8,9 C 80 % 988,6 hPa 0,0 l/m 0 min 0 min 26 W/m 25,7 km/h (4 Bft) 95,65 %
20.12.2019 10:20 9,8 C 9,4 C 8,3 C 80 % 988,5 hPa 0,0 l/m 0 min 0 min 25 W/m 29,0 km/h (5 Bft) 95,74 %
20.12.2019 10:22 9,9 C 9,4 C 8,3 C 80 % 988,5 hPa 0,0 l/m 0 min 0 min 24 W/m 19,3 km/h (3 Bft) 95,74 %
20.12.2019 10:24 9,8 C 9,4 C 8,3 C 80 % 988,5 hPa 0,0 l/m 0 min 0 min 21 W/m 32,2 km/h (5 Bft) 95,74 %
20.12.2019 10:26 9,9 C 9,4 C 8,3 C 80 % 988,5 hPa 0,0 l/m 0 min 0 min 21 W/m 45,1 km/h (6 Bft) 95,74 %
20.12.2019 10:28 9,9 C 9,4 C 8,9 C 80 % 988,4 hPa 0,0 l/m 0 min 0 min 24 W/m 25,7 km/h (4 Bft) 95,74 %
20.12.2019 10:30 9,9 C 9,4 C 8,9 C 81 % 988,4 hPa 0,0 l/m 0 min 0 min 29 W/m 25,7 km/h (4 Bft) 95,65 %
20.12.2019 10:32 9,9 C 9,4 C 8,9 C 81 % 988,4 hPa 0,0 l/m 0 min 0 min 31 W/m 32,2 km/h (5 Bft) 95,74 %
20.12.2019 10:34 10,0 C 9,4 C 8,9 C 81 % 988,3 hPa 0,0 l/m 0 min 0 min 32 W/m 41,8 km/h (6 Bft) 95,74 %
20.12.2019 10:36 10,0 C 9,4 C 8,9 C 81 % 988,2 hPa 0,0 l/m 0 min 2 min 32 W/m 35,4 km/h (5 Bft) 91,49 %
20.12.2019 10:38 10,1 C 8,9 C 8,3 C 81 % 988,2 hPa 0,0 l/m 0 min 0 min 33 W/m 35,4 km/h (5 Bft) 97,87 %
20.12.2019 10:40 10,1 C 8,9 C 8,3 C 81 % 988,2 hPa 0,0 l/m 0 min 2 min 33 W/m 35,4 km/h (5 Bft) 97,87 %
20.12.2019 10:42 10,1 C 8,9 C 8,9 C 81 % 988,2 hPa 0,0 l/m 0 min 2 min 29 W/m 35,4 km/h (5 Bft) 97,83 %
20.12.2019 10:44 10,1 C 9,4 C 8,9 C 81 % 988,2 hPa 0,0 l/m 0 min 2 min 25 W/m 35,4 km/h (5 Bft) 95,74 %
20.12.2019 10:46 10,2 C 8,9 C 8,9 C 81 % 988,2 hPa 0,0 l/m 0 min 0 min 23 W/m 35,4 km/h (5 Bft) 97,87 %
20.12.2019 10:48 10,2 C 8,9 C 8,3 C 82 % 988,2 hPa 0,0 l/m 0 min 2 min 24 W/m 32,2 km/h (5 Bft) 100,00 %
20.12.2019 10:50 10,2 C 8,3 C 7,8 C 82 % 988,3 hPa 0,0 l/m 0 min 2 min 27 W/m 32,2 km/h (5 Bft) 100,00 %
20.12.2019 10:52 10,3 C 8,3 C 7,8 C 83 % 988,2 hPa 0,0 l/m 0 min 2 min 30 W/m 38,6 km/h (5 Bft) 100,00 %
20.12.2019 10:54 10,3 C 8,3 C 7,8 C 83 % 988,3 hPa 0,0 l/m 0 min 2 min 32 W/m 38,6 km/h (5 Bft) 97,83 %
20.12.2019 10:56 10,3 C 7,8 C 7,8 C 83 % 988,2 hPa 0,0 l/m 0 min 2 min 28 W/m 25,7 km/h (4 Bft) 100,00 %
20.12.2019 10:58 10,4 C 7,8 C 7,2 C 84 % 988,2 hPa 0,0 l/m 0 min 2 min 24 W/m 45,1 km/h (6 Bft) 100,00 %
20.12.2019 11:00 10,4 C 7,8 C 7,2 C 84 % 988,3 hPa 0,2 l/m 0 min 2 min 20 W/m 38,6 km/h (5 Bft) 100,00 %
20.12.2019 11:02 10,4 C 7,8 C 7,2 C 85 % 988,2 hPa 0,0 l/m 0 min 2 min 20 W/m 35,4 km/h (5 Bft) 97,87 %
20.12.2019 11:04 10,4 C 7,8 C 7,2 C 85 % 988,3 hPa 0,0 l/m 0 min 2 min 22 W/m 38,6 km/h (5 Bft) 100,00 %
20.12.2019 11:06 10,4 C 7,8 C 7,2 C 85 % 988,4 hPa 0,0 l/m 0 min 2 min 25 W/m 29,0 km/h (5 Bft) 100,00 %
20.12.2019 11:08 10,4 C 7,8 C 7,2 C 85 % 988,3 hPa 0,0 l/m 0 min 2 min 26 W/m 25,7 km/h (4 Bft) 100,00 %
20.12.2019 11:10 10,3 C 7,8 C 7,2 C 85 % 988,2 hPa 0,0 l/m 0 min 2 min 26 W/m 29,0 km/h (5 Bft) 100,00 %
20.12.2019 11:12 10,3 C 7,2 C 7,2 C 85 % 988,2 hPa 0,2 l/m 0 min 2 min 26 W/m 45,1 km/h (6 Bft) 100,00 %
20.12.2019 11:14 10,2 C 7,2 C 6,7 C 85 % 988,1 hPa 0,0 l/m 0 min 2 min 26 W/m 32,2 km/h (5 Bft) 97,87 %
20.12.2019 11:16 10,1 C 7,2 C 6,7 C 85 % 988,1 hPa 0,0 l/m 0 min 2 min 26 W/m 29,0 km/h (5 Bft) 97,83 %
20.12.2019 11:18 10,1 C 7,2 C 6,7 C 86 % 987,9 hPa 0,0 l/m 0 min 2 min 31 W/m 38,6 km/h (5 Bft) 100,00 %
20.12.2019 11:20 10,0 C 7,2 C 6,7 C 86 % 987,9 hPa 0,0 l/m 0 min 2 min 33 W/m 38,6 km/h (5 Bft) 97,87 %
20.12.2019 11:22 9,9 C 7,2 C 6,7 C 86 % 987,8 hPa 0,2 l/m 0 min 2 min 36 W/m 41,8 km/h (6 Bft) 100,00 %
20.12.2019 11:24 9,8 C 7,2 C 6,7 C 86 % 987,8 hPa 0,0 l/m 0 min 2 min 38 W/m 41,8 km/h (6 Bft) 100,00 %
20.12.2019 11:26 9,8 C 7,2 C 6,7 C 86 % 987,7 hPa 0,0 l/m 0 min 2 min 41 W/m 41,8 km/h (6 Bft) 100,00 %
20.12.2019 11:28 9,8 C 7,2 C 6,7 C 86 % 987,8 hPa 0,0 l/m 0 min 2 min 42 W/m 29,0 km/h (5 Bft) 100,00 %
20.12.2019 11:30 9,8 C 7,2 C 6,7 C 87 % 987,6 hPa 0,0 l/m 0 min 2 min 41 W/m 38,6 km/h (5 Bft) 100,00 %
20.12.2019 11:32 9,7 C 7,2 C 6,7 C 87 % 987,6 hPa 0,0 l/m 0 min 2 min 45 W/m 35,4 km/h (5 Bft) 97,87 %
20.12.2019 11:34 9,7 C 7,2 C 6,7 C 87 % 987,5 hPa 0,0 l/m 0 min 2 min 44 W/m 41,8 km/h (6 Bft) 100,00 %
20.12.2019 11:36 9,6 C 7,2 C 6,7 C 87 % 987,4 hPa 0,2 l/m 0 min 2 min 41 W/m 29,0 km/h (5 Bft) 97,87 %
20.12.2019 11:38 9,6 C 7,2 C 6,7 C 88 % 987,3 hPa 0,0 l/m 0 min 2 min 40 W/m 35,4 km/h (5 Bft) 97,87 %
20.12.2019 11:40 9,6 C 7,2 C 6,7 C 88 % 987,3 hPa 0,0 l/m 0 min 2 min 41 W/m 35,4 km/h (5 Bft) 95,65 %
20.12.2019 11:42 9,6 C 7,2 C 6,7 C 88 % 987,3 hPa 0,0 l/m 0 min 2 min 44 W/m 25,7 km/h (4 Bft) 97,87 %
20.12.2019 11:44 9,6 C 7,2 C 6,7 C 88 % 987,1 hPa 0,0 l/m 0 min 2 min 47 W/m 38,6 km/h (5 Bft) 97,87 %
20.12.2019 11:46 9,6 C 7,2 C 6,7 C 89 % 987,1 hPa 0,0 l/m 0 min 2 min 46 W/m 25,7 km/h (4 Bft) 97,87 %
20.12.2019 11:48 9,6 C 7,2 C 6,7 C 89 % 987,1 hPa 0,0 l/m 0 min 2 min 42 W/m 41,8 km/h (6 Bft) 97,87 %
20.12.2019 11:50 9,6 C 7,2 C 7,2 C 89 % 987,0 hPa 0,0 l/m 0 min 2 min 44 W/m 29,0 km/h (5 Bft) 95,74 %
20.12.2019 11:52 9,6 C 7,2 C 7,2 C 89 % 987,0 hPa 0,0 l/m 0 min 2 min 45 W/m 41,8 km/h (6 Bft) 97,83 %
20.12.2019 11:54 9,6 C 7,2 C 7,2 C 89 % 987,0 hPa 0,0 l/m 0 min 2 min 45 W/m 32,2 km/h (5 Bft) 97,87 %
20.12.2019 11:56 9,6 C 7,2 C 7,2 C 89 % 987,0 hPa 0,0 l/m 0 min 2 min 41 W/m 32,2 km/h (5 Bft) 97,87 %
20.12.2019 11:58 9,6 C 7,2 C 7,2 C 89 % 987,0 hPa 0,0 l/m 0 min 2 min 27 W/m 38,6 km/h (5 Bft) 97,87 %
20.12.2019 12:00 9,6 C 7,2 C 7,2 C 90 % 986,9 hPa 0,0 l/m 0 min 2 min 19 W/m 29,0 km/h (5 Bft) 97,87 %
20.12.2019 12:02 9,6 C 7,2 C 7,2 C 90 % 986,9 hPa 0,2 l/m 0 min 2 min 20 W/m 32,2 km/h (5 Bft) 95,74 %
20.12.2019 12:04 9,6 C 7,2 C 7,2 C 90 % 986,9 hPa 0,0 l/m 0 min 2 min 20 W/m 35,4 km/h (5 Bft) 97,83 %
20.12.2019 12:06 9,6 C 7,2 C 7,2 C 90 % 986,9 hPa 0,0 l/m 0 min 2 min 19 W/m 22,5 km/h (4 Bft) 95,74 %
20.12.2019 12:08 9,6 C 7,2 C 7,2 C 90 % 986,9 hPa 0,0 l/m 0 min 2 min 20 W/m 25,7 km/h (4 Bft) 95,74 %
20.12.2019 12:10 9,6 C 7,2 C 7,2 C 90 % 986,9 hPa 0,2 l/m 0 min 2 min 22 W/m 25,7 km/h (4 Bft) 97,87 %
20.12.2019 12:12 9,6 C 7,2 C 7,2 C 90 % 986,9 hPa 0,0 l/m 0 min 2 min 25 W/m 41,8 km/h (6 Bft) 97,87 %
20.12.2019 12:14 9,6 C 7,2 C 7,2 C 90 % 986,8 hPa 0,0 l/m 0 min 2 min 26 W/m 29,0 km/h (5 Bft) 97,83 %
20.12.2019 12:16 9,6 C 7,2 C 7,2 C 91 % 986,8 hPa 0,0 l/m 0 min 2 min 21 W/m 22,5 km/h (4 Bft) 97,87 %
20.12.2019 12:18 9,6 C 7,2 C 7,2 C 91 % 986,7 hPa 0,0 l/m 0 min 2 min 23 W/m 29,0 km/h (5 Bft) 95,74 %
20.12.2019 12:20 9,6 C 7,2 C 7,2 C 91 % 986,7 hPa 0,0 l/m 0 min 2 min 24 W/m 29,0 km/h (5 Bft) 93,62 %
20.12.2019 12:22 9,6 C 7,8 C 7,2 C 91 % 986,7 hPa 0,0 l/m 0 min 2 min 26 W/m 38,6 km/h (5 Bft) 97,87 %
20.12.2019 12:24 9,6 C 7,8 C 7,2 C 91 % 986,5 hPa 0,2 l/m 0 min 2 min 26 W/m 25,7 km/h (4 Bft) 97,87 %
20.12.2019 12:26 9,6 C 7,8 C 7,2 C 91 % 986,5 hPa 0,0 l/m 0 min 2 min 26 W/m 35,4 km/h (5 Bft) 95,65 %
20.12.2019 12:28 9,6 C 7,8 C 7,2 C 91 % 986,5 hPa 0,0 l/m 0 min 2 min 26 W/m 35,4 km/h (5 Bft) 97,87 %
20.12.2019 12:30 9,6 C 7,8 C 7,2 C 91 % 986,5 hPa 0,0 l/m 0 min 2 min 27 W/m 38,6 km/h (5 Bft) 100,00 %
20.12.2019 12:32 9,6 C 7,8 C 7,2 C 91 % 986,4 hPa 0,2 l/m 0 min 2 min 28 W/m 35,4 km/h (5 Bft) 100,00 %
20.12.2019 12:34 9,6 C 7,8 C 7,2 C 91 % 986,4 hPa 0,0 l/m 0 min 2 min 29 W/m 41,8 km/h (6 Bft) 97,87 %
20.12.2019 12:36 9,6 C 7,8 C 7,2 C 91 % 986,4 hPa 0,0 l/m 0 min 2 min 31 W/m 48,3 km/h (6 Bft) 95,74 %
20.12.2019 12:38 9,6 C 7,8 C 7,2 C 91 % 986,3 hPa 0,0 l/m 0 min 2 min 32 W/m 38,6 km/h (5 Bft) 97,83 %
20.12.2019 12:40 9,7 C 7,8 C 7,2 C 91 % 986,4 hPa 0,0 l/m 0 min 2 min 32 W/m 35,4 km/h (5 Bft) 97,87 %
20.12.2019 12:42 9,7 C 7,8 C 7,2 C 91 % 986,3 hPa 0,0 l/m 0 min 2 min 31 W/m 35,4 km/h (5 Bft) 97,87 %
20.12.2019 12:44 9,7 C 7,8 C 7,2 C 91 % 986,2 hPa 0,0 l/m 0 min 0 min 28 W/m 32,2 km/h (5 Bft) 97,87 %
20.12.2019 12:46 9,7 C 7,8 C 7,2 C 91 % 986,3 hPa 0,0 l/m 0 min 2 min 28 W/m 41,8 km/h (6 Bft) 97,87 %
20.12.2019 12:48 9,7 C 7,8 C 7,8 C 91 % 986,3 hPa 0,0 l/m 0 min 2 min 26 W/m 29,0 km/h (5 Bft) 97,87 %
20.12.2019 12:50 9,7 C 8,3 C 7,8 C 91 % 986,3 hPa 0,0 l/m 0 min 2 min 25 W/m 25,7 km/h (4 Bft) 97,83 %
20.12.2019 12:52 9,7 C 7,8 C 7,2 C 91 % 986,1 hPa 0,0 l/m 0 min 2 min 26 W/m 38,6 km/h (5 Bft) 97,87 %
20.12.2019 12:54 9,8 C 7,8 C 7,2 C 91 % 986,1 hPa 0,0 l/m 0 min 2 min 26 W/m 38,6 km/h (5 Bft) 97,87 %
20.12.2019 12:56 9,8 C 7,8 C 7,2 C 90 % 986,1 hPa 0,0 l/m 0 min 2 min 29 W/m 41,8 km/h (6 Bft) 97,87 %
20.12.2019 12:58 9,8 C 7,8 C 7,2 C 90 % 986,1 hPa 0,0 l/m 0 min 2 min 33 W/m 35,4 km/h (5 Bft) 97,87 %
20.12.2019 13:00 9,8 C 7,8 C 7,2 C 90 % 986,1 hPa 0,0 l/m 0 min 2 min 34 W/m 29,0 km/h (5 Bft) 95,74 %
20.12.2019 13:02 9,8 C 7,8 C 7,2 C 90 % 986,0 hPa 0,0 l/m 0 min 2 min 40 W/m 22,5 km/h (4 Bft) 95,65 %
20.12.2019 13:04 9,8 C 7,8 C 7,2 C 90 % 985,9 hPa 0,0 l/m 0 min 2 min 45 W/m 41,8 km/h (6 Bft) 97,87 %
20.12.2019 13:06 9,8 C 7,8 C 7,2 C 90 % 985,9 hPa 0,0 l/m 0 min 2 min 44 W/m 35,4 km/h (5 Bft) 97,87 %
20.12.2019 13:08 9,8 C 7,8 C 7,2 C 90 % 985,9 hPa 0,0 l/m 0 min 2 min 44 W/m 38,6 km/h (5 Bft) 97,87 %
20.12.2019 13:10 9,8 C 7,8 C 7,2 C 91 % 985,9 hPa 0,0 l/m 0 min 2 min 44 W/m 32,2 km/h (5 Bft) 97,87 %
20.12.2019 13:12 9,9 C 7,8 C 7,2 C 91 % 986,0 hPa 0,0 l/m 0 min 2 min 43 W/m 41,8 km/h (6 Bft) 93,62 %
20.12.2019 13:14 9,9 C 7,8 C 7,2 C 91 % 985,9 hPa 0,0 l/m 0 min 2 min 41 W/m 35,4 km/h (5 Bft) 97,83 %
20.12.2019 13:16 9,9 C 8,3 C 7,8 C 91 % 985,9 hPa 0,0 l/m 0 min 2 min 40 W/m 25,7 km/h (4 Bft) 97,87 %
20.12.2019 13:18 9,9 C 8,3 C 7,8 C 91 % 985,8 hPa 0,0 l/m 0 min 2 min 43 W/m 29,0 km/h (5 Bft) 97,87 %
20.12.2019 13:20 9,9 C 8,3 C 7,8 C 91 % 985,9 hPa 0,0 l/m 0 min 2 min 45 W/m 48,3 km/h (6 Bft) 97,87 %
20.12.2019 13:22 9,9 C 8,3 C 7,8 C 91 % 985,9 hPa 0,0 l/m 0 min 2 min 47 W/m 41,8 km/h (6 Bft) 97,87 %
20.12.2019 13:24 9,9 C 8,3 C 7,8 C 91 % 985,9 hPa 0,0 l/m 0 min 2 min 51 W/m 25,7 km/h (4 Bft) 97,83 %
20.12.2019 13:26 9,9 C 8,3 C 7,8 C 91 % 985,7 hPa 0,0 l/m 0 min 2 min 53 W/m 41,8 km/h (6 Bft) 97,87 %
20.12.2019 13:28 10,0 C 8,3 C 7,8 C 91 % 985,8 hPa 0,0 l/m 0 min 2 min 63 W/m 29,0 km/h (5 Bft) 97,87 %
20.12.2019 13:30 10,1 C 8,9 C 7,8 C 91 % 985,7 hPa 0,0 l/m 0 min 0 min 70 W/m 35,4 km/h (5 Bft) 97,87 %
20.12.2019 13:32 10,1 C 8,9 C 7,8 C 91 % 985,7 hPa 0,0 l/m 0 min 0 min 63 W/m 38,6 km/h (5 Bft) 97,87 %
20.12.2019 13:34 10,1 C 8,9 C 7,8 C 91 % 985,6 hPa 0,0 l/m 0 min 0 min 62 W/m 38,6 km/h (5 Bft) 97,87 %
20.12.2019 13:36 10,1 C 8,9 C 7,8 C 91 % 985,6 hPa 0,0 l/m 0 min 2 min 71 W/m 41,8 km/h (6 Bft) 95,65 %
20.12.2019 13:38 10,2 C 8,9 C 7,8 C 91 % 985,5 hPa 0,0 l/m 0 min 2 min 75 W/m 32,2 km/h (5 Bft) 97,87 %
20.12.2019 13:40 10,2 C 8,9 C 8,3 C 91 % 985,5 hPa 0,0 l/m 0 min 0 min 72 W/m 48,3 km/h (6 Bft) 95,74 %
20.12.2019 13:42 10,2 C 8,9 C 8,3 C 91 % 985,5 hPa 0,0 l/m 0 min 0 min 74 W/m 32,2 km/h (5 Bft) 97,87 %
20.12.2019 13:44 10,3 C 8,9 C 8,3 C 91 % 985,5 hPa 0,0 l/m 0 min 0 min 77 W/m 38,6 km/h (5 Bft) 97,87 %
20.12.2019 13:46 10,3 C 8,9 C 8,3 C 91 % 985,6 hPa 0,0 l/m 0 min 0 min 71 W/m 38,6 km/h (5 Bft) 97,87 %
20.12.2019 13:48 10,3 C 9,4 C 8,3 C 91 % 985,5 hPa 0,0 l/m 0 min 0 min 59 W/m 51,5 km/h (7 Bft) 97,83 %
20.12.2019 13:50 10,3 C 9,4 C 8,3 C 91 % 985,5 hPa 0,0 l/m 0 min 0 min 51 W/m 29,0 km/h (5 Bft) 97,87 %
20.12.2019 13:52 10,4 C 9,4 C 8,3 C 91 % 985,5 hPa 0,0 l/m 0 min 0 min 46 W/m 48,3 km/h (6 Bft) 97,87 %
20.12.2019 13:54 10,4 C 8,9 C 8,3 C 91 % 985,4 hPa 0,0 l/m 0 min 0 min 37 W/m 35,4 km/h (5 Bft) 97,87 %
20.12.2019 13:56 10,4 C 9,4 C 8,3 C 91 % 985,5 hPa 0,0 l/m 0 min 0 min 31 W/m 22,5 km/h (4 Bft) 95,74 %
20.12.2019 13:58 10,4 C 9,4 C 8,3 C 91 % 985,4 hPa 0,0 l/m 0 min 0 min 29 W/m 29,0 km/h (5 Bft) 95,74 %
20.12.2019 14:00 10,4 C 9,4 C 8,3 C 91 % 985,4 hPa 0,0 l/m 0 min 0 min 29 W/m 51,5 km/h (7 Bft) 97,83 %
20.12.2019 14:02 10,5 C 9,4 C 8,3 C 90 % 985,3 hPa 0,0 l/m 0 min 0 min 22 W/m 38,6 km/h (5 Bft) 95,74 %
20.12.2019 14:04 10,5 C 9,4 C 8,3 C 90 % 985,3 hPa 0,0 l/m 0 min 0 min 19 W/m 29,0 km/h (5 Bft) 97,87 %
20.12.2019 14:06 10,5 C 9,4 C 8,3 C 90 % 985,3 hPa 0,0 l/m 0 min 0 min 20 W/m 35,4 km/h (5 Bft) 97,87 %
20.12.2019 14:08 10,6 C 9,4 C 8,3 C 90 % 985,2 hPa 0,0 l/m 0 min 0 min 25 W/m 38,6 km/h (5 Bft) 97,87 %
20.12.2019 14:10 10,6 C 9,4 C 8,3 C 90 % 985,3 hPa 0,0 l/m 0 min 0 min 29 W/m 35,4 km/h (5 Bft) 100,00 %
20.12.2019 14:12 10,6 C 9,4 C 8,3 C 90 % 985,3 hPa 0,0 l/m 0 min 0 min 33 W/m 35,4 km/h (5 Bft) 100,00 %
20.12.2019 14:14 10,6 C 9,4 C 8,9 C 90 % 985,2 hPa 0,0 l/m 0 min 0 min 29 W/m 29,0 km/h (5 Bft) 100,00 %
20.12.2019 14:16 10,6 C 9,4 C 8,9 C 90 % 985,4 hPa 0,0 l/m 0 min 0 min 26 W/m 35,4 km/h (5 Bft) 97,87 %
20.12.2019 14:18 10,6 C 9,4 C 8,9 C 90 % 985,4 hPa 0,0 l/m 0 min 0 min 25 W/m 29,0 km/h (5 Bft) 97,87 %
20.12.2019 14:20 10,7 C 9,4 C 8,9 C 91 % 985,4 hPa 0,0 l/m 0 min 0 min 26 W/m 32,2 km/h (5 Bft) 97,87 %
20.12.2019 14:22 10,7 C 9,4 C 8,9 C 91 % 985,4 hPa 0,0 l/m 0 min 0 min 28 W/m 32,2 km/h (5 Bft) 97,87 %
20.12.2019 14:24 10,7 C 9,4 C 8,9 C 91 % 985,4 hPa 0,0 l/m 0 min 0 min 32 W/m 48,3 km/h (6 Bft) 97,83 %
20.12.2019 14:26 10,7 C 10,0 C 8,9 C 91 % 985,4 hPa 0,0 l/m 0 min 0 min 33 W/m 38,6 km/h (5 Bft) 97,87 %
20.12.2019 14:28 10,8 C 10,0 C 8,9 C 91 % 985,5 hPa 0,0 l/m 0 min 0 min 32 W/m 41,8 km/h (6 Bft) 95,74 %
20.12.2019 14:30 10,8 C 10,0 C 8,9 C 90 % 985,4 hPa 0,0 l/m 0 min 0 min 25 W/m 32,2 km/h (5 Bft) 97,87 %
20.12.2019 14:32 10,8 C 10,0 C 8,9 C 90 % 985,5 hPa 0,0 l/m 0 min 0 min 21 W/m 35,4 km/h (5 Bft) 97,87 %
20.12.2019 14:34 10,8 C 10,0 C 8,9 C 90 % 985,5 hPa 0,0 l/m 0 min 0 min 21 W/m 25,7 km/h (4 Bft) 97,83 %
20.12.2019 14:36 10,8 C 10,0 C 8,9 C 90 % 985,5 hPa 0,0 l/m 0 min 0 min 21 W/m 38,6 km/h (5 Bft) 97,87 %
20.12.2019 14:38 10,8 C 10,0 C 8,9 C 90 % 985,5 hPa 0,0 l/m 0 min 0 min 28 W/m 25,7 km/h (4 Bft) 95,74 %
20.12.2019 14:40 10,8 C 10,0 C 8,9 C 90 % 985,5 hPa 0,0 l/m 0 min 0 min 26 W/m 25,7 km/h (4 Bft) 97,87 %
20.12.2019 14:42 10,9 C 10,0 C 8,9 C 90 % 985,5 hPa 0,0 l/m 0 min 0 min 28 W/m 29,0 km/h (5 Bft) 95,74 %
20.12.2019 14:44 10,8 C 10,0 C 8,9 C 90 % 985,5 hPa 0,0 l/m 0 min 0 min 26 W/m 32,2 km/h (5 Bft) 97,87 %
20.12.2019 14:46 10,9 C 10,0 C 8,9 C 90 % 985,6 hPa 0,0 l/m 0 min 0 min 24 W/m 29,0 km/h (5 Bft) 95,65 %
20.12.2019 14:48 10,9 C 10,6 C 8,9 C 90 % 985,6 hPa 0,0 l/m 0 min 0 min 20 W/m 32,2 km/h (5 Bft) 97,87 %
20.12.2019 14:50 10,9 C 10,0 C 8,9 C 90 % 985,6 hPa 0,0 l/m 0 min 0 min 17 W/m 35,4 km/h (5 Bft) 97,87 %
20.12.2019 14:52 10,9 C 10,0 C 8,9 C 90 % 985,6 hPa 0,0 l/m 0 min 0 min 16 W/m 25,7 km/h (4 Bft) 95,74 %
20.12.2019 14:54 10,9 C 10,0 C 8,9 C 90 % 985,6 hPa 0,0 l/m 0 min 0 min 18 W/m 32,2 km/h (5 Bft) 95,74 %
20.12.2019 14:56 10,9 C 10,0 C 8,9 C 90 % 985,6 hPa 0,0 l/m 0 min 0 min 25 W/m 35,4 km/h (5 Bft) 95,74 %
20.12.2019 14:58 10,9 C 10,6 C 8,9 C 90 % 985,6 hPa 0,0 l/m 0 min 0 min 19 W/m 35,4 km/h (5 Bft) 97,83 %
20.12.2019 15:00 10,9 C 10,6 C 8,9 C 90 % 985,5 hPa 0,0 l/m 0 min 0 min 18 W/m 25,7 km/h (4 Bft) 95,74 %
20.12.2019 15:02 10,9 C 10,6 C 8,9 C 90 % 985,6 hPa 0,0 l/m 0 min 0 min 20 W/m 29,0 km/h (5 Bft) 97,87 %
20.12.2019 15:04 10,9 C 10,0 C 8,9 C 90 % 985,6 hPa 0,0 l/m 0 min 2 min 22 W/m 32,2 km/h (5 Bft) 97,87 %
20.12.2019 15:06 10,9 C 10,0 C 8,9 C 90 % 985,6 hPa 0,0 l/m 0 min 2 min 25 W/m 38,6 km/h (5 Bft) 95,74 %
20.12.2019 15:08 10,9 C 10,0 C 8,9 C 90 % 985,7 hPa 0,0 l/m 0 min 0 min 23 W/m 25,7 km/h (4 Bft) 95,74 %
20.12.2019 15:10 10,9 C 10,0 C 8,9 C 90 % 985,6 hPa 0,0 l/m 0 min 0 min 21 W/m 22,5 km/h (4 Bft) 97,83 %
20.12.2019 15:12 10,9 C 10,0 C 8,9 C 90 % 985,5 hPa 0,0 l/m 0 min 0 min 24 W/m 35,4 km/h (5 Bft) 93,62 %
20.12.2019 15:14 10,9 C 10,0 C 8,9 C 90 % 985,5 hPa 0,0 l/m 0 min 2 min 42 W/m 32,2 km/h (5 Bft) 97,87 %
20.12.2019 15:16 10,9 C 10,0 C 8,9 C 91 % 985,4 hPa 0,0 l/m 0 min 2 min 50 W/m 32,2 km/h (5 Bft) 97,87 %
20.12.2019 15:18 10,9 C 10,0 C 8,9 C 91 % 985,4 hPa 0,0 l/m 0 min 0 min 50 W/m 29,0 km/h (5 Bft) 95,74 %
20.12.2019 15:20 10,9 C 10,0 C 8,9 C 91 % 985,4 hPa 0,0 l/m 0 min 0 min 37 W/m 32,2 km/h (5 Bft) 97,83 %
20.12.2019 15:22 10,9 C 10,0 C 8,9 C 91 % 985,5 hPa 0,0 l/m 0 min 0 min 20 W/m 35,4 km/h (5 Bft) 97,87 %
20.12.2019 15:24 10,9 C 10,0 C 8,9 C 91 % 985,6 hPa 0,0 l/m 0 min 0 min 14 W/m 35,4 km/h (5 Bft) 97,87 %
20.12.2019 15:26 10,9 C 10,0 C 8,9 C 91 % 985,6 hPa 0,0 l/m 0 min 0 min 16 W/m 29,0 km/h (5 Bft) 97,87 %
20.12.2019 15:28 10,9 C 10,0 C 8,9 C 91 % 985,6 hPa 0,0 l/m 0 min 0 min 18 W/m 29,0 km/h (5 Bft) 95,74 %
20.12.2019 15:30 10,9 C 10,0 C 8,9 C 91 % 985,6 hPa 0,0 l/m 0 min 0 min 20 W/m 25,7 km/h (4 Bft) 93,62 %
20.12.2019 15:32 10,9 C 10,0 C 8,9 C 91 % 985,6 hPa 0,0 l/m 0 min 0 min 21 W/m 25,7 km/h (4 Bft) 97,87 %
20.12.2019 15:34 10,9 C 10,0 C 8,9 C 91 % 985,7 hPa 0,0 l/m 0 min 0 min 19 W/m 29,0 km/h (5 Bft) 97,83 %
20.12.2019 15:36 10,9 C 10,0 C 8,9 C 91 % 985,7 hPa 0,0 l/m 0 min 0 min 17 W/m 38,6 km/h (5 Bft) 97,87 %
20.12.2019 15:38 10,9 C 10,0 C 8,9 C 91 % 985,7 hPa 0,0 l/m 0 min 0 min 13 W/m 19,3 km/h (3 Bft) 95,74 %
20.12.2019 15:40 10,9 C 10,0 C 8,9 C 91 % 985,7 hPa 0,0 l/m 0 min 0 min 10 W/m 22,5 km/h (4 Bft) 97,87 %
20.12.2019 15:42 10,9 C 10,0 C 8,9 C 91 % 985,8 hPa 0,0 l/m 0 min 0 min 10 W/m 25,7 km/h (4 Bft) 97,87 %
20.12.2019 15:44 10,9 C 10,0 C 8,9 C 92 % 985,8 hPa 0,0 l/m 0 min 0 min 8 W/m 19,3 km/h (3 Bft) 95,65 %
20.12.2019 15:46 10,9 C 10,0 C 8,9 C 92 % 985,8 hPa 0,0 l/m 0 min 0 min 7 W/m 19,3 km/h (3 Bft) 97,87 %
20.12.2019 15:48 10,9 C 10,0 C 8,9 C 92 % 985,6 hPa 0,0 l/m 0 min 0 min 7 W/m 22,5 km/h (4 Bft) 97,87 %
20.12.2019 15:50 10,9 C 10,0 C 8,9 C 92 % 985,7 hPa 0,0 l/m 0 min 0 min 7 W/m 25,7 km/h (4 Bft) 100,00 %
20.12.2019 15:52 10,9 C 10,0 C 8,9 C 92 % 985,7 hPa 0,0 l/m 0 min 0 min 7 W/m 25,7 km/h (4 Bft) 100,00 %
20.12.2019 15:54 10,9 C 10,0 C 8,9 C 92 % 985,7 hPa 0,0 l/m 0 min 0 min 7 W/m 25,7 km/h (4 Bft) 100,00 %
20.12.2019 15:56 10,9 C 10,6 C 9,4 C 92 % 985,8 hPa 0,0 l/m 0 min 0 min 9 W/m 25,7 km/h (4 Bft) 100,00 %
20.12.2019 15:58 10,9 C 10,0 C 8,9 C 92 % 985,8 hPa 0,0 l/m 0 min 0 min 10 W/m 22,5 km/h (4 Bft) 100,00 %
20.12.2019 16:00 10,9 C 10,0 C 8,9 C 92 % 985,8 hPa 0,0 l/m 0 min 0 min 9 W/m 22,5 km/h (4 Bft) 97,87 %
20.12.2019 16:02 10,9 C 10,0 C 8,9 C 92 % 985,8 hPa 0,0 l/m 0 min 0 min 9 W/m 25,7 km/h (4 Bft) 97,87 %
20.12.2019 16:04 10,9 C 10,0 C 8,9 C 92 % 985,9 hPa 0,0 l/m 0 min 0 min 11 W/m 25,7 km/h (4 Bft) 97,87 %
20.12.2019 16:06 10,9 C 10,0 C 8,9 C 92 % 985,9 hPa 0,0 l/m 0 min 0 min 11 W/m 25,7 km/h (4 Bft) 100,00 %
20.12.2019 16:08 10,9 C 10,0 C 8,9 C 92 % 985,9 hPa 0,0 l/m 0 min 0 min 11 W/m 19,3 km/h (3 Bft) 100,00 %
20.12.2019 16:10 10,9 C 10,0 C 8,9 C 92 % 985,9 hPa 0,0 l/m 0 min 0 min 11 W/m 29,0 km/h (5 Bft) 100,00 %
20.12.2019 16:12 10,9 C 10,0 C 8,9 C 92 % 985,9 hPa 0,0 l/m 0 min 0 min 10 W/m 25,7 km/h (4 Bft) 97,87 %
20.12.2019 16:14 10,9 C 10,0 C 8,9 C 92 % 986,0 hPa 0,0 l/m 0 min 0 min 7 W/m 22,5 km/h (4 Bft) 100,00 %
20.12.2019 16:16 10,9 C 10,0 C 8,9 C 92 % 986,0 hPa 0,0 l/m 0 min 0 min 2 W/m 22,5 km/h (4 Bft) 97,87 %
20.12.2019 16:18 10,9 C 10,0 C 9,4 C 92 % 986,0 hPa 0,0 l/m 0 min 0 min 0 W/m 19,3 km/h (3 Bft) 100,00 %
20.12.2019 16:20 10,9 C 10,0 C 9,4 C 92 % 986,1 hPa 0,0 l/m 0 min 0 min 0 W/m 25,7 km/h (4 Bft) 100,00 %
20.12.2019 16:22 10,9 C 10,0 C 9,4 C 92 % 986,1 hPa 0,0 l/m 0 min 0 min 0 W/m 29,0 km/h (5 Bft) 100,00 %
20.12.2019 16:24 10,9 C 10,0 C 9,4 C 92 % 986,1 hPa 0,0 l/m 0 min 0 min 0 W/m 29,0 km/h (5 Bft) 100,00 %
20.12.2019 16:26 10,9 C 10,0 C 9,4 C 92 % 986,1 hPa 0,0 l/m 0 min 0 min 0 W/m 22,5 km/h (4 Bft) 100,00 %
20.12.2019 16:28 10,9 C 10,0 C 9,4 C 92 % 986,1 hPa 0,0 l/m 0 min 0 min 0 W/m 22,5 km/h (4 Bft) 100,00 %
20.12.2019 16:30 10,9 C 10,0 C 9,4 C 92 % 986,1 hPa 0,0 l/m 0 min 0 min 0 W/m 22,5 km/h (4 Bft) 95,65 %
20.12.2019 16:32 10,9 C 10,0 C 9,4 C 92 % 986,1 hPa 0,0 l/m 0 min 0 min 0 W/m 22,5 km/h (4 Bft) 93,62 %
20.12.2019 16:34 10,9 C 10,0 C 9,4 C 92 % 986,3 hPa 0,0 l/m 0 min 0 min 0 W/m 19,3 km/h (3 Bft) 97,87 %
20.12.2019 16:36 10,9 C 10,0 C 9,4 C 92 % 986,3 hPa 0,0 l/m 0 min 0 min 0 W/m 22,5 km/h (4 Bft) 93,62 %
20.12.2019 16:38 10,9 C 10,0 C 9,4 C 92 % 986,3 hPa 0,0 l/m 0 min 0 min 0 W/m 22,5 km/h (4 Bft) 97,87 %
20.12.2019 16:40 10,9 C 10,0 C 9,4 C 92 % 986,4 hPa 0,0 l/m 0 min 0 min 0 W/m 22,5 km/h (4 Bft) 97,87 %
20.12.2019 16:42 10,9 C 10,0 C 9,4 C 92 % 986,4 hPa 0,0 l/m 0 min 0 min 0 W/m 22,5 km/h (4 Bft) 100,00 %
20.12.2019 16:44 10,9 C 10,0 C 9,4 C 92 % 986,4 hPa 0,0 l/m 0 min 0 min 0 W/m 22,5 km/h (4 Bft) 97,87 %
20.12.2019 16:46 10,9 C 10,0 C 9,4 C 92 % 986,4 hPa 0,0 l/m 0 min 0 min 0 W/m 22,5 km/h (4 Bft) 97,87 %
20.12.2019 16:48 10,9 C 10,0 C 9,4 C 92 % 986,5 hPa 0,0 l/m 0 min 0 min 0 W/m 16,1 km/h (3 Bft) 97,87 %
20.12.2019 16:50 10,9 C 10,0 C 9,4 C 92 % 986,6 hPa 0,0 l/m 0 min 0 min 0 W/m 22,5 km/h (4 Bft) 97,87 %
20.12.2019 16:52 10,9 C 10,0 C 9,4 C 92 % 986,6 hPa 0,0 l/m 0 min 0 min 0 W/m 19,3 km/h (3 Bft) 97,87 %
20.12.2019 16:54 10,9 C 10,0 C 9,4 C 93 % 986,6 hPa 0,0 l/m 0 min 0 min 0 W/m 16,1 km/h (3 Bft) 95,65 %
20.12.2019 16:56 10,9 C 10,0 C 9,4 C 93 % 986,7 hPa 0,0 l/m 0 min 0 min 0 W/m 22,5 km/h (4 Bft) 95,74 %
20.12.2019 16:58 10,9 C 10,0 C 9,4 C 93 % 986,7 hPa 0,0 l/m 0 min 0 min 0 W/m 19,3 km/h (3 Bft) 95,74 %
20.12.2019 17:00 10,9 C 10,0 C 9,4 C 93 % 986,7 hPa 0,0 l/m 0 min 0 min 0 W/m 19,3 km/h (3 Bft) 95,74 %
20.12.2019 17:02 10,9 C 10,0 C 9,4 C 93 % 986,8 hPa 0,0 l/m 0 min 0 min 0 W/m 19,3 km/h (3 Bft) 91,49 %
20.12.2019 17:04 10,9 C 10,0 C 9,4 C 93 % 986,8 hPa 0,0 l/m 0 min 0 min 0 W/m 12,9 km/h (3 Bft) 95,74 %
20.12.2019 17:06 10,9 C 10,0 C 9,4 C 93 % 986,9 hPa 0,0 l/m 0 min 0 min 0 W/m 29,0 km/h (5 Bft) 95,65 %
20.12.2019 17:08 10,9 C 10,6 C 9,4 C 93 % 986,9 hPa 0,0 l/m 0 min 0 min 0 W/m 19,3 km/h (3 Bft) 93,62 %
20.12.2019 17:10 10,9 C 10,6 C 9,4 C 93 % 987,0 hPa 0,0 l/m 0 min 0 min 0 W/m 19,3 km/h (3 Bft) 95,74 %
20.12.2019 17:12 11,0 C 10,0 C 9,4 C 93 % 987,2 hPa 0,0 l/m 0 min 2 min 0 W/m 12,9 km/h (3 Bft) 95,74 %
20.12.2019 17:14 11,0 C 9,4 C 8,9 C 93 % 987,3 hPa 0,0 l/m 0 min 2 min 0 W/m 12,9 km/h (3 Bft) 95,74 %
20.12.2019 17:16 11,0 C 9,4 C 8,9 C 93 % 987,3 hPa 0,2 l/m 0 min 2 min 0 W/m 6,4 km/h (2 Bft) 93,62 %
20.12.2019 17:18 11,0 C 9,4 C 8,9 C 93 % 987,4 hPa 0,2 l/m 0 min 2 min 0 W/m 16,1 km/h (3 Bft) 95,65 %
20.12.2019 17:20 11,0 C 9,4 C 8,9 C 93 % 987,4 hPa 0,0 l/m 0 min 2 min 0 W/m 22,5 km/h (4 Bft) 93,62 %
20.12.2019 17:22 11,0 C 8,9 C 8,9 C 93 % 987,4 hPa 0,0 l/m 0 min 2 min 0 W/m 35,4 km/h (5 Bft) 95,74 %
20.12.2019 17:24 10,9 C 8,9 C 8,3 C 93 % 987,5 hPa 0,2 l/m 0 min 2 min 0 W/m 25,7 km/h (4 Bft) 95,74 %
20.12.2019 17:26 10,9 C 8,9 C 8,3 C 93 % 987,5 hPa 0,0 l/m 0 min 2 min 0 W/m 29,0 km/h (5 Bft) 97,87 %
20.12.2019 17:28 10,9 C 8,9 C 8,3 C 93 % 987,5 hPa 0,2 l/m 0 min 2 min 0 W/m 19,3 km/h (3 Bft) 97,83 %
20.12.2019 17:30 10,9 C 8,9 C 8,3 C 93 % 987,5 hPa 0,0 l/m 0 min 2 min 0 W/m 25,7 km/h (4 Bft) 97,87 %
20.12.2019 17:32 10,8 C 8,9 C 8,3 C 94 % 987,4 hPa 0,0 l/m 0 min 2 min 0 W/m 16,1 km/h (3 Bft) 95,74 %
20.12.2019 17:34 10,8 C 8,9 C 8,3 C 94 % 987,5 hPa 0,0 l/m 0 min 2 min 0 W/m 25,7 km/h (4 Bft) 97,87 %
20.12.2019 17:36 10,8 C 8,9 C 8,3 C 93 % 987,5 hPa 0,0 l/m 0 min 2 min 0 W/m 19,3 km/h (3 Bft) 95,74 %
20.12.2019 17:38 10,7 C 8,9 C 8,3 C 93 % 987,5 hPa 0,0 l/m 0 min 0 min 0 W/m 22,5 km/h (4 Bft) 97,87 %
20.12.2019 17:40 10,7 C 8,9 C 8,3 C 94 % 987,6 hPa 0,0 l/m 0 min 0 min 0 W/m 25,7 km/h (4 Bft) 95,74 %
20.12.2019 17:42 10,7 C 8,9 C 8,3 C 94 % 987,6 hPa 0,0 l/m 0 min 2 min 0 W/m 19,3 km/h (3 Bft) 97,83 %
20.12.2019 17:44 10,7 C 8,9 C 8,3 C 94 % 987,6 hPa 0,0 l/m 0 min 2 min 0 W/m 16,1 km/h (3 Bft) 100,00 %
20.12.2019 17:46 10,7 C 8,9 C 8,3 C 94 % 987,6 hPa 0,0 l/m 0 min 2 min 0 W/m 6,4 km/h (2 Bft) 100,00 %
20.12.2019 17:48 10,7 C 8,9 C 8,3 C 94 % 987,7 hPa 0,0 l/m 0 min 2 min 0 W/m 22,5 km/h (4 Bft) 97,87 %
20.12.2019 17:50 10,6 C 8,9 C 8,3 C 94 % 987,7 hPa 0,0 l/m 0 min 2 min 0 W/m 19,3 km/h (3 Bft) 95,74 %
20.12.2019 17:52 10,6 C 8,9 C 8,3 C 94 % 987,8 hPa 0,0 l/m 0 min 2 min 0 W/m 19,3 km/h (3 Bft) 97,83 %
20.12.2019 17:54 10,6 C 8,9 C 8,3 C 94 % 987,8 hPa 0,0 l/m 0 min 2 min 0 W/m 22,5 km/h (4 Bft) 97,87 %
20.12.2019 17:56 10,6 C 8,9 C 8,3 C 94 % 987,7 hPa 0,0 l/m 0 min 2 min 0 W/m 19,3 km/h (3 Bft) 97,87 %
20.12.2019 17:58 10,6 C 8,9 C 8,3 C 94 % 987,8 hPa 0,2 l/m 0 min 2 min 0 W/m 16,1 km/h (3 Bft) 97,87 %
20.12.2019 18:00 10,6 C 8,9 C 8,3 C 95 % 987,9 hPa 0,0 l/m 0 min 2 min 0 W/m 3,2 km/h (1 Bft) 97,87 %
20.12.2019 18:02 10,6 C 8,9 C 8,3 C 94 % 988,0 hPa 0,0 l/m 0 min 2 min 0 W/m 12,9 km/h (3 Bft) 97,87 %
20.12.2019 18:04 10,6 C 8,9 C 8,3 C 94 % 988,0 hPa 0,0 l/m 0 min 2 min 0 W/m 6,4 km/h (2 Bft) 97,83 %
20.12.2019 18:06 10,6 C 8,9 C 8,3 C 95 % 988,0 hPa 0,0 l/m 0 min 0 min 0 W/m 6,4 km/h (2 Bft) 97,87 %
20.12.2019 18:08 10,6 C 8,9 C 8,3 C 95 % 988,0 hPa 0,0 l/m 0 min 0 min 0 W/m 3,2 km/h (1 Bft) 97,87 %
20.12.2019 18:10 10,6 C 8,9 C 8,3 C 95 % 988,0 hPa 0,0 l/m 0 min 2 min 0 W/m 3,2 km/h (1 Bft) 97,87 %
20.12.2019 18:12 10,5 C 8,9 C 8,3 C 95 % 988,0 hPa 0,0 l/m 0 min 2 min 0 W/m 6,4 km/h (2 Bft) 97,87 %
20.12.2019 18:14 10,5 C 8,9 C 8,3 C 95 % 988,0 hPa 0,0 l/m 0 min 2 min 0 W/m 12,9 km/h (3 Bft) 95,74 %
20.12.2019 18:16 10,5 C 8,9 C 8,3 C 95 % 988,0 hPa 0,0 l/m 0 min 2 min 0 W/m 6,4 km/h (2 Bft) 97,83 %
20.12.2019 18:18 10,4 C 8,9 C 8,3 C 95 % 988,1 hPa 0,0 l/m 0 min 2 min 0 W/m 22,5 km/h (4 Bft) 97,87 %
20.12.2019 18:20 10,4 C 8,9 C 8,3 C 95 % 988,0 hPa 0,0 l/m 0 min 2 min 0 W/m 12,9 km/h (3 Bft) 97,87 %
20.12.2019 18:22 10,4 C 8,3 C 8,3 C 95 % 988,0 hPa 0,0 l/m 0 min 2 min 0 W/m 22,5 km/h (4 Bft) 97,87 %
20.12.2019 18:24 10,3 C 8,3 C 7,8 C 95 % 987,9 hPa 0,0 l/m 0 min 2 min 0 W/m 12,9 km/h (3 Bft) 95,74 %
20.12.2019 18:26 10,2 C 8,3 C 7,8 C 95 % 988,0 hPa 0,0 l/m 0 min 2 min 0 W/m 19,3 km/h (3 Bft) 97,87 %
20.12.2019 18:28 10,2 C 8,3 C 7,8 C 94 % 987,9 hPa 0,0 l/m 0 min 2 min 0 W/m 6,4 km/h (2 Bft) 97,83 %
20.12.2019 18:30 10,1 C 8,3 C 7,8 C 94 % 988,0 hPa 0,0 l/m 0 min 2 min 0 W/m 16,1 km/h (3 Bft) 95,74 %
20.12.2019 18:32 10,1 C 8,3 C 7,8 C 94 % 988,0 hPa 0,0 l/m 0 min 2 min 0 W/m 12,9 km/h (3 Bft) 95,74 %
20.12.2019 18:34 10,1 C 8,3 C 7,8 C 94 % 988,0 hPa 0,0 l/m 0 min 0 min 0 W/m 12,9 km/h (3 Bft) 95,74 %
20.12.2019 18:36 10,1 C 8,3 C 7,8 C 94 % 988,1 hPa 0,0 l/m 0 min 0 min 0 W/m 16,1 km/h (3 Bft) 97,87 %
20.12.2019 18:38 10,0 C 8,3 C 7,8 C 94 % 988,1 hPa 0,0 l/m 0 min 2 min 0 W/m 16,1 km/h (3 Bft) 97,83 %
20.12.2019 18:40 10,0 C 8,3 C 7,8 C 94 % 988,1 hPa 0,0 l/m 0 min 2 min 0 W/m 16,1 km/h (3 Bft) 95,74 %
20.12.2019 18:42 9,9 C 8,3 C 7,8 C 94 % 988,1 hPa 0,0 l/m 0 min 2 min 0 W/m 16,1 km/h (3 Bft) 97,87 %
20.12.2019 18:44 9,9 C 8,3 C 7,8 C 94 % 988,1 hPa 0,0 l/m 0 min 0 min 0 W/m 22,5 km/h (4 Bft) 100,00 %
20.12.2019 18:46 9,9 C 8,3 C 7,8 C 93 % 988,1 hPa 0,0 l/m 0 min 0 min 0 W/m 12,9 km/h (3 Bft) 100,00 %
20.12.2019 18:48 9,9 C 8,3 C 7,8 C 93 % 988,2 hPa 0,0 l/m 0 min 0 min 0 W/m 22,5 km/h (4 Bft) 100,00 %
20.12.2019 18:50 9,9 C 8,3 C 7,8 C 93 % 988,2 hPa 0,0 l/m 0 min 0 min 0 W/m 12,9 km/h (3 Bft) 100,00 %
20.12.2019 18:52 9,9 C 8,3 C 7,8 C 93 % 988,2 hPa 0,0 l/m 0 min 0 min 0 W/m 16,1 km/h (3 Bft) 100,00 %
20.12.2019 18:54 9,9 C 8,3 C 7,8 C 93 % 988,2 hPa 0,0 l/m 0 min 0 min 0 W/m 16,1 km/h (3 Bft) 100,00 %
20.12.2019 18:56 9,9 C 8,3 C 7,8 C 93 % 988,2 hPa 0,0 l/m 0 min 0 min 0 W/m 12,9 km/h (3 Bft) 100,00 %
20.12.2019 18:58 9,9 C 8,3 C 7,8 C 93 % 988,3 hPa 0,0 l/m 0 min 0 min 0 W/m 19,3 km/h (3 Bft) 95,74 %
20.12.2019 19:00 9,9 C 8,3 C 7,8 C 93 % 988,4 hPa 0,0 l/m 0 min 0 min 0 W/m 16,1 km/h (3 Bft) 100,00 %
20.12.2019 19:02 9,9 C 8,3 C 7,8 C 93 % 988,4 hPa 0,0 l/m 0 min 0 min 0 W/m 19,3 km/h (3 Bft) 100,00 %
20.12.2019 19:04 9,9 C 8,3 C 7,8 C 93 % 988,4 hPa 0,0 l/m 0 min 0 min 0 W/m 19,3 km/h (3 Bft) 100,00 %
20.12.2019 19:06 9,8 C 8,3 C 7,8 C 93 % 988,5 hPa 0,0 l/m 0 min 0 min 0 W/m 16,1 km/h (3 Bft) 100,00 %
20.12.2019 19:08 9,8 C 8,3 C 7,8 C 93 % 988,4 hPa 0,0 l/m 0 min 0 min 0 W/m 19,3 km/h (3 Bft) 100,00 %
20.12.2019 19:10 9,8 C 8,3 C 7,8 C 93 % 988,5 hPa 0,0 l/m 0 min 0 min 0 W/m 19,3 km/h (3 Bft) 100,00 %
20.12.2019 19:12 9,8 C 8,3 C 7,8 C 93 % 988,5 hPa 0,0 l/m 0 min 0 min 0 W/m 22,5 km/h (4 Bft) 100,00 %
20.12.2019 19:14 9,7 C 8,3 C 7,8 C 93 % 988,5 hPa 0,0 l/m 0 min 0 min 0 W/m 19,3 km/h (3 Bft) 100,00 %
20.12.2019 19:16 9,7 C 8,3 C 7,8 C 93 % 988,5 hPa 0,0 l/m 0 min 0 min 0 W/m 12,9 km/h (3 Bft) 97,87 %
20.12.2019 19:18 9,7 C 8,3 C 7,8 C 93 % 988,6 hPa 0,0 l/m 0 min 0 min 0 W/m 29,0 km/h (5 Bft) 97,87 %
20.12.2019 19:20 9,6 C 8,3 C 7,8 C 93 % 988,7 hPa 0,0 l/m 0 min 0 min 0 W/m 16,1 km/h (3 Bft) 100,00 %
20.12.2019 19:22 9,6 C 8,3 C 7,2 C 92 % 988,7 hPa 0,0 l/m 0 min 0 min 0 W/m 22,5 km/h (4 Bft) 100,00 %
20.12.2019 19:24 9,6 C 8,3 C 7,2 C 92 % 988,6 hPa 0,0 l/m 0 min 0 min 0 W/m 22,5 km/h (4 Bft) 100,00 %
20.12.2019 19:26 9,6 C 8,3 C 7,2 C 92 % 988,7 hPa 0,0 l/m 0 min 0 min 0 W/m 19,3 km/h (3 Bft) 100,00 %
20.12.2019 19:28 9,6 C 7,8 C 7,2 C 92 % 988,7 hPa 0,0 l/m 0 min 0 min 0 W/m 16,1 km/h (3 Bft) 100,00 %
20.12.2019 19:30 9,5 C 7,8 C 7,2 C 91 % 988,8 hPa 0,0 l/m 0 min 0 min 0 W/m 16,1 km/h (3 Bft) 100,00 %
20.12.2019 19:32 9,5 C 7,8 C 7,2 C 91 % 988,8 hPa 0,0 l/m 0 min 0 min 0 W/m 19,3 km/h (3 Bft) 97,87 %
20.12.2019 19:34 9,5 C 8,3 C 7,2 C 91 % 988,9 hPa 0,0 l/m 0 min 0 min 0 W/m 19,3 km/h (3 Bft) 100,00 %
20.12.2019 19:36 9,5 C 8,3 C 7,2 C 91 % 988,9 hPa 0,0 l/m 0 min 0 min 0 W/m 29,0 km/h (5 Bft) 100,00 %
20.12.2019 19:38 9,4 C 8,3 C 7,2 C 91 % 989,0 hPa 0,0 l/m 0 min 0 min 0 W/m 16,1 km/h (3 Bft) 97,87 %
20.12.2019 19:40 9,4 C 8,3 C 7,2 C 91 % 988,9 hPa 0,0 l/m 0 min 0 min 0 W/m 29,0 km/h (5 Bft) 97,87 %
20.12.2019 19:42 9,4 C 8,3 C 7,2 C 90 % 988,9 hPa 0,0 l/m 0 min 0 min 0 W/m 22,5 km/h (4 Bft) 95,74 %
20.12.2019 19:44 9,4 C 8,3 C 7,2 C 90 % 988,9 hPa 0,0 l/m 0 min 0 min 0 W/m 16,1 km/h (3 Bft) 97,87 %
20.12.2019 19:46 9,4 C 7,8 C 7,2 C 90 % 989,0 hPa 0,0 l/m 0 min 0 min 0 W/m 12,9 km/h (3 Bft) 95,74 %
20.12.2019 19:48 9,4 C 8,3 C 7,2 C 90 % 989,0 hPa 0,0 l/m 0 min 0 min 0 W/m 12,9 km/h (3 Bft) 97,83 %
20.12.2019 19:50 9,4 C 7,8 C 7,2 C 90 % 989,0 hPa 0,0 l/m 0 min 0 min 0 W/m 12,9 km/h (3 Bft) 97,87 %
20.12.2019 19:52 9,4 C 7,8 C 7,2 C 90 % 989,1 hPa 0,0 l/m 0 min 0 min 0 W/m 22,5 km/h (4 Bft) 95,74 %
20.12.2019 19:54 9,4 C 8,3 C 7,2 C 90 % 989,1 hPa 0,0 l/m 0 min 0 min 0 W/m 19,3 km/h (3 Bft) 97,87 %
20.12.2019 19:56 9,4 C 7,8 C 7,2 C 90 % 989,1 hPa 0,0 l/m 0 min 0 min 0 W/m 16,1 km/h (3 Bft) 95,74 %
20.12.2019 19:58 9,4 C 8,3 C 7,2 C 90 % 989,1 hPa 0,0 l/m 0 min 0 min 0 W/m 16,1 km/h (3 Bft) 97,87 %
20.12.2019 20:00 9,4 C 7,8 C 7,2 C 90 % 989,2 hPa 0,0 l/m 0 min 0 min 0 W/m 12,9 km/h (3 Bft) 95,12 %
20.12.2019 20:02 9,4 C 7,8 C 7,2 C 90 % 989,2 hPa 0,0 l/m 0 min 0 min 0 W/m 12,9 km/h (3 Bft) 96,00 %
20.12.2019 20:04 9,3 C 7,8 C 7,2 C 90 % 989,2 hPa 0,0 l/m 0 min 0 min 0 W/m 12,9 km/h (3 Bft) 91,84 %
20.12.2019 20:06 9,3 C 7,8 C 7,2 C 90 % 989,2 hPa 0,0 l/m 0 min 0 min 0 W/m 16,1 km/h (3 Bft) 95,74 %
20.12.2019 20:08 9,3 C 7,8 C 7,2 C 90 % 989,2 hPa 0,0 l/m 0 min 0 min 0 W/m 12,9 km/h (3 Bft) 44,44 %
20.12.2019 20:10 9,3 C 7,8 C 7,2 C 90 % 989,2 hPa 0,0 l/m 0 min 0 min 0 W/m 22,5 km/h (4 Bft) 93,62 %
20.12.2019 20:12 9,3 C 8,3 C 7,2 C 90 % 989,2 hPa 0,0 l/m 0 min 0 min 0 W/m 19,3 km/h (3 Bft) 93,48 %
20.12.2019 20:14 9,3 C 8,3 C 7,2 C 90 % 989,1 hPa 0,0 l/m 0 min 0 min 0 W/m 19,3 km/h (3 Bft) 93,62 %
20.12.2019 20:16 9,3 C 7,8 C 7,2 C 90 % 989,1 hPa 0,0 l/m 0 min 0 min 0 W/m 12,9 km/h (3 Bft) 93,62 %
20.12.2019 20:18 9,3 C 8,3 C 7,2 C 90 % 989,0 hPa 0,0 l/m 0 min 0 min 0 W/m 16,1 km/h (3 Bft) 90,24 %
20.12.2019 20:20 9,3 C 8,3 C 7,2 C 90 % 989,1 hPa 0,0 l/m 0 min 0 min 0 W/m 16,1 km/h (3 Bft) 93,75 %
20.12.2019 20:22 9,3 C 8,3 C 7,2 C 90 % 989,1 hPa 0,0 l/m 0 min 0 min 0 W/m 25,7 km/h (4 Bft) 95,83 %
20.12.2019 20:24 9,2 C 8,3 C 7,2 C 90 % 989,1 hPa 0,0 l/m 0 min 0 min 0 W/m 22,5 km/h (4 Bft) 93,62 %
20.12.2019 20:26 9,2 C 8,3 C 7,2 C 91 % 989,1 hPa 0,0 l/m 0 min 0 min 0 W/m 16,1 km/h (3 Bft) 93,62 %
20.12.2019 20:28 9,2 C 8,3 C 7,2 C 90 % 989,0 hPa 0,0 l/m 0 min 0 min 0 W/m 32,2 km/h (5 Bft) 95,83 %
20.12.2019 20:30 9,2 C 8,3 C 7,2 C 91 % 989,1 hPa 0,0 l/m 0 min 0 min 0 W/m 22,5 km/h (4 Bft) 94,44 %
20.12.2019 20:32 9,2 C 8,3 C 7,2 C 90 % 989,1 hPa 0,0 l/m 0 min 0 min 0 W/m 19,3 km/h (3 Bft) 93,88 %
20.12.2019 20:34 9,2 C 8,3 C 7,2 C 90 % 989,2 hPa 0,0 l/m 0 min 0 min 0 W/m 19,3 km/h (3 Bft) 95,83 %
20.12.2019 20:36 9,2 C 8,3 C 7,8 C 90 % 989,2 hPa 0,0 l/m 0 min 0 min 0 W/m 22,5 km/h (4 Bft) 95,74 %
20.12.2019 20:38 9,2 C 8,3 C 7,8 C 90 % 989,3 hPa 0,0 l/m 0 min 0 min 0 W/m 25,7 km/h (4 Bft) 95,65 %
20.12.2019 20:40 9,2 C 8,9 C 7,8 C 90 % 989,4 hPa 0,0 l/m 0 min 0 min 0 W/m 38,6 km/h (5 Bft) 89,36 %
20.12.2019 20:42 9,2 C 8,3 C 7,8 C 90 % 989,3 hPa 0,0 l/m 0 min 0 min 0 W/m 22,5 km/h (4 Bft) 97,87 %
20.12.2019 20:44 9,2 C 8,3 C 7,8 C 90 % 989,4 hPa 0,0 l/m 0 min 0 min 0 W/m 16,1 km/h (3 Bft) 93,62 %
20.12.2019 20:46 9,2 C 8,3 C 7,8 C 90 % 989,4 hPa 0,0 l/m 0 min 0 min 0 W/m 19,3 km/h (3 Bft) 95,24 %
20.12.2019 20:48 9,2 C 8,3 C 7,8 C 90 % 989,3 hPa 0,0 l/m 0 min 0 min 0 W/m 16,1 km/h (3 Bft) 93,75 %
20.12.2019 20:50 9,2 C 8,3 C 7,8 C 90 % 989,3 hPa 0,0 l/m 0 min 0 min 0 W/m 25,7 km/h (4 Bft) 93,62 %
20.12.2019 20:52 9,2 C 8,3 C 7,8 C 90 % 989,4 hPa 0,0 l/m 0 min 0 min 0 W/m 19,3 km/h (3 Bft) 95,74 %
20.12.2019 20:54 9,2 C 8,3 C 7,8 C 89 % 989,5 hPa 0,0 l/m 0 min 0 min 0 W/m 29,0 km/h (5 Bft) 95,83 %
20.12.2019 20:56 9,2 C 8,3 C 7,8 C 89 % 989,6 hPa 0,0 l/m 0 min 0 min 0 W/m 35,4 km/h (5 Bft) 95,74 %
20.12.2019 20:58 9,2 C 8,3 C 7,8 C 89 % 989,5 hPa 0,0 l/m 0 min 0 min 0 W/m 25,7 km/h (4 Bft) 95,74 %
20.12.2019 21:00 9,2 C 8,3 C 7,8 C 89 % 989,5 hPa 0,0 l/m 0 min 0 min 0 W/m 25,7 km/h (4 Bft) 95,74 %
20.12.2019 21:02 9,2 C 8,3 C 7,8 C 89 % 989,5 hPa 0,0 l/m 0 min 0 min 0 W/m 29,0 km/h (5 Bft) 95,74 %
20.12.2019 21:04 9,2 C 8,3 C 7,8 C 89 % 989,5 hPa 0,0 l/m 0 min 0 min 0 W/m 22,5 km/h (4 Bft) 93,02 %
20.12.2019 21:06 9,2 C 8,3 C 7,8 C 89 % 989,6 hPa 0,0 l/m 0 min 0 min 0 W/m 19,3 km/h (3 Bft) 93,75 %
20.12.2019 21:08 9,2 C 8,3 C 7,8 C 89 % 989,5 hPa 0,0 l/m 0 min 0 min 0 W/m 29,0 km/h (5 Bft) 95,83 %
20.12.2019 21:10 9,2 C 8,3 C 7,8 C 89 % 989,6 hPa 0,0 l/m 0 min 0 min 0 W/m 22,5 km/h (4 Bft) 100,00 %
20.12.2019 21:12 9,2 C 8,3 C 7,8 C 88 % 989,7 hPa 0,0 l/m 0 min 0 min 0 W/m 16,1 km/h (3 Bft) 97,87 %
20.12.2019 21:14 9,2 C 8,3 C 7,8 C 88 % 989,7 hPa 0,0 l/m 0 min 0 min 0 W/m 22,5 km/h (4 Bft) 100,00 %
20.12.2019 21:16 9,2 C 8,3 C 7,8 C 88 % 989,7 hPa 0,0 l/m 0 min 0 min 0 W/m 12,9 km/h (3 Bft) 95,74 %
20.12.2019 21:18 9,2 C 8,3 C 7,8 C 88 % 989,6 hPa 0,0 l/m 0 min 0 min 0 W/m 29,0 km/h (5 Bft) 100,00 %
20.12.2019 21:20 9,2 C 8,3 C 7,8 C 88 % 989,7 hPa 0,0 l/m 0 min 0 min 0 W/m 19,3 km/h (3 Bft) 100,00 %
20.12.2019 21:22 9,2 C 8,3 C 7,8 C 88 % 989,6 hPa 0,0 l/m 0 min 0 min 0 W/m 16,1 km/h (3 Bft) 97,87 %
20.12.2019 21:24 9,2 C 8,3 C 7,8 C 88 % 989,6 hPa 0,0 l/m 0 min 0 min 0 W/m 19,3 km/h (3 Bft) 100,00 %
20.12.2019 21:26 9,2 C 8,3 C 7,8 C 88 % 989,7 hPa 0,0 l/m 0 min 0 min 0 W/m 12,9 km/h (3 Bft) 97,83 %
20.12.2019 21:28 9,2 C 8,3 C 7,8 C 87 % 989,7 hPa 0,0 l/m 0 min 0 min 0 W/m 29,0 km/h (5 Bft) 100,00 %
20.12.2019 21:30 9,2 C 8,3 C 7,8 C 87 % 989,8 hPa 0,0 l/m 0 min 0 min 0 W/m 16,1 km/h (3 Bft) 100,00 %
20.12.2019 21:32 9,2 C 8,3 C 7,8 C 87 % 989,8 hPa 0,0 l/m 0 min 0 min 0 W/m 25,7 km/h (4 Bft) 100,00 %
20.12.2019 21:34 9,2 C 8,3 C 7,8 C 87 % 989,8 hPa 0,0 l/m 0 min 0 min 0 W/m 19,3 km/h (3 Bft) 100,00 %
20.12.2019 21:36 9,2 C 8,3 C 7,8 C 87 % 989,9 hPa 0,0 l/m 0 min 0 min 0 W/m 19,3 km/h (3 Bft) 100,00 %
20.12.2019 21:38 9,2 C 8,3 C 7,8 C 87 % 989,9 hPa 0,0 l/m 0 min 0 min 0 W/m 16,1 km/h (3 Bft) 97,92 %
20.12.2019 21:40 9,1 C 8,3 C 7,8 C 87 % 989,9 hPa 0,0 l/m 0 min 0 min 0 W/m 19,3 km/h (3 Bft) 100,00 %
20.12.2019 21:42 9,1 C 8,3 C 7,8 C 87 % 990,0 hPa 0,0 l/m 0 min 0 min 0 W/m 22,5 km/h (4 Bft) 100,00 %
20.12.2019 21:44 9,1 C 8,3 C 7,8 C 87 % 990,0 hPa 0,0 l/m 0 min 0 min 0 W/m 19,3 km/h (3 Bft) 100,00 %
20.12.2019 21:46 9,1 C 8,3 C 7,8 C 87 % 990,0 hPa 0,0 l/m 0 min 0 min 0 W/m 35,4 km/h (5 Bft) 100,00 %
20.12.2019 21:48 9,1 C 8,3 C 7,8 C 87 % 990,0 hPa 0,0 l/m 0 min 0 min 0 W/m 22,5 km/h (4 Bft) 100,00 %
20.12.2019 21:50 9,1 C 8,9 C 7,8 C 87 % 990,0 hPa 0,0 l/m 0 min 0 min 0 W/m 29,0 km/h (5 Bft) 59,18 %
20.12.2019 21:52 9,1 C 8,3 C 7,8 C 87 % 990,0 hPa 0,0 l/m 0 min 0 min 0 W/m 22,5 km/h (4 Bft) 100,00 %
20.12.2019 21:54 9,1 C 8,3 C 7,8 C 87 % 990,1 hPa 0,0 l/m 0 min 0 min 0 W/m 22,5 km/h (4 Bft) 97,92 %
20.12.2019 21:56 9,1 C 8,3 C 7,8 C 87 % 990,1 hPa 0,0 l/m 0 min 0 min 0 W/m 25,7 km/h (4 Bft) 97,92 %
20.12.2019 21:58 9,1 C 8,3 C 7,8 C 87 % 990,2 hPa 0,0 l/m 0 min 0 min 0 W/m 25,7 km/h (4 Bft) 100,00 %
20.12.2019 22:00 9,1 C 8,3 C 7,8 C 87 % 990,2 hPa 0,0 l/m 0 min 0 min 0 W/m 22,5 km/h (4 Bft) 95,74 %
20.12.2019 22:02 9,2 C 8,3 C 7,8 C 87 % 990,2 hPa 0,0 l/m 0 min 0 min 0 W/m 22,5 km/h (4 Bft) 100,00 %
20.12.2019 22:04 9,2 C 8,3 C 7,8 C 87 % 990,3 hPa 0,0 l/m 0 min 0 min 0 W/m 32,2 km/h (5 Bft) 100,00 %
20.12.2019 22:06 9,2 C 8,3 C 7,8 C 86 % 990,3 hPa 0,0 l/m 0 min 0 min 0 W/m 16,1 km/h (3 Bft) 100,00 %
20.12.2019 22:08 9,2 C 8,3 C 7,8 C 86 % 990,3 hPa 0,0 l/m 0 min 0 min 0 W/m 16,1 km/h (3 Bft) 100,00 %
20.12.2019 22:10 9,2 C 8,3 C 7,8 C 86 % 990,3 hPa 0,0 l/m 0 min 0 min 0 W/m 22,5 km/h (4 Bft) 100,00 %
20.12.2019 22:12 9,2 C 8,3 C 7,8 C 86 % 990,4 hPa 0,0 l/m 0 min 0 min 0 W/m 22,5 km/h (4 Bft) 97,87 %
20.12.2019 22:14 9,2 C 8,3 C 7,8 C 86 % 990,3 hPa 0,0 l/m 0 min 0 min 0 W/m 19,3 km/h (3 Bft) 100,00 %
20.12.2019 22:16 9,2 C 8,3 C 7,8 C 85 % 990,4 hPa 0,0 l/m 0 min 0 min 0 W/m 19,3 km/h (3 Bft) 100,00 %
20.12.2019 22:18 9,1 C 8,3 C 7,8 C 85 % 990,4 hPa 0,0 l/m 0 min 0 min 0 W/m 16,1 km/h (3 Bft) 95,83 %
20.12.2019 22:20 9,1 C 8,3 C 7,8 C 85 % 990,4 hPa 0,0 l/m 0 min 0 min 0 W/m 22,5 km/h (4 Bft) 100,00 %
20.12.2019 22:22 9,1 C 8,3 C 7,8 C 85 % 990,4 hPa 0,0 l/m 0 min 0 min 0 W/m 29,0 km/h (5 Bft) 100,00 %
20.12.2019 22:24 9,1 C 8,3 C 7,8 C 85 % 990,5 hPa 0,0 l/m 0 min 0 min 0 W/m 25,7 km/h (4 Bft) 100,00 %
20.12.2019 22:26 9,1 C 8,3 C 7,8 C 85 % 990,4 hPa 0,0 l/m 0 min 0 min 0 W/m 29,0 km/h (5 Bft) 97,87 %
20.12.2019 22:28 9,1 C 8,3 C 7,2 C 85 % 990,5 hPa 0,0 l/m 0 min 0 min 0 W/m 25,7 km/h (4 Bft) 95,83 %
20.12.2019 22:30 9,1 C 7,8 C 7,2 C 85 % 990,5 hPa 0,0 l/m 0 min 0 min 0 W/m 12,9 km/h (3 Bft) 97,92 %
20.12.2019 22:32 9,0 C 7,8 C 7,2 C 85 % 990,6 hPa 0,0 l/m 0 min 0 min 0 W/m 12,9 km/h (3 Bft) 97,87 %
20.12.2019 22:34 9,0 C 7,8 C 7,2 C 85 % 990,6 hPa 0,0 l/m 0 min 0 min 0 W/m 16,1 km/h (3 Bft) 95,74 %
20.12.2019 22:36 9,0 C 7,8 C 7,2 C 84 % 990,6 hPa 0,0 l/m 0 min 0 min 0 W/m 19,3 km/h (3 Bft) 95,74 %
20.12.2019 22:38 8,9 C 7,8 C 7,2 C 84 % 990,7 hPa 0,0 l/m 0 min 0 min 0 W/m 25,7 km/h (4 Bft) 97,87 %
20.12.2019 22:40 8,9 C 7,8 C 7,2 C 84 % 990,7 hPa 0,0 l/m 0 min 0 min 0 W/m 16,1 km/h (3 Bft) 97,92 %
20.12.2019 22:42 8,9 C 7,8 C 7,2 C 84 % 990,7 hPa 0,0 l/m 0 min 0 min 0 W/m 16,1 km/h (3 Bft) 97,92 %
20.12.2019 22:44 8,8 C 7,8 C 7,2 C 84 % 990,8 hPa 0,0 l/m 0 min 0 min 0 W/m 22,5 km/h (4 Bft) 97,87 %
20.12.2019 22:46 8,8 C 7,8 C 7,2 C 84 % 990,8 hPa 0,0 l/m 0 min 0 min 0 W/m 16,1 km/h (3 Bft) 95,83 %
20.12.2019 22:48 8,8 C 7,8 C 7,2 C 84 % 990,8 hPa 0,0 l/m 0 min 0 min 0 W/m 12,9 km/h (3 Bft) 97,87 %
20.12.2019 22:50 8,8 C 7,8 C 7,2 C 84 % 990,8 hPa 0,0 l/m 0 min 0 min 0 W/m 25,7 km/h (4 Bft) 95,83 %
20.12.2019 22:52 8,7 C 7,8 C 7,2 C 85 % 990,9 hPa 0,0 l/m 0 min 0 min 0 W/m 16,1 km/h (3 Bft) 95,83 %
20.12.2019 22:54 8,7 C 7,8 C 7,2 C 85 % 990,9 hPa 0,0 l/m 0 min 0 min 0 W/m 12,9 km/h (3 Bft) 93,62 %
20.12.2019 22:56 8,7 C 7,8 C 7,2 C 85 % 990,9 hPa 0,0 l/m 0 min 0 min 0 W/m 19,3 km/h (3 Bft) 94,59 %
20.12.2019 22:58 8,7 C 7,8 C 6,7 C 85 % 990,9 hPa 0,0 l/m 0 min 0 min 0 W/m 12,9 km/h (3 Bft) 97,83 %
20.12.2019 23:00 8,6 C 7,2 C 6,7 C 85 % 990,9 hPa 0,0 l/m 0 min 0 min 0 W/m 12,9 km/h (3 Bft) 95,74 %
20.12.2019 23:02 8,6 C 7,2 C 6,7 C 85 % 990,9 hPa 0,0 l/m 0 min 0 min 0 W/m 16,1 km/h (3 Bft) 94,00 %
20.12.2019 23:04 8,6 C 7,2 C 6,7 C 85 % 991,0 hPa 0,0 l/m 0 min 0 min 0 W/m 29,0 km/h (5 Bft) 95,74 %
20.12.2019 23:06 8,6 C 7,2 C 6,7 C 85 % 991,0 hPa 0,0 l/m 0 min 0 min 0 W/m 16,1 km/h (3 Bft) 95,24 %
20.12.2019 23:08 8,5 C 7,2 C 6,7 C 85 % 991,0 hPa 0,0 l/m 0 min 0 min 0 W/m 29,0 km/h (5 Bft) 95,83 %
20.12.2019 23:10 8,5 C 7,2 C 6,7 C 85 % 991,0 hPa 0,0 l/m 0 min 0 min 0 W/m 16,1 km/h (3 Bft) 95,65 %
20.12.2019 23:12 8,4 C 7,2 C 6,7 C 85 % 991,0 hPa 0,0 l/m 0 min 0 min 0 W/m 12,9 km/h (3 Bft) 89,58 %
20.12.2019 23:14 8,4 C 7,2 C 6,7 C 85 % 991,0 hPa 0,0 l/m 0 min 0 min 0 W/m 12,9 km/h (3 Bft) 97,92 %
20.12.2019 23:16 8,4 C 7,2 C 6,7 C 85 % 991,0 hPa 0,0 l/m 0 min 0 min 0 W/m 16,1 km/h (3 Bft) 95,83 %
20.12.2019 23:18 8,3 C 7,2 C 6,7 C 85 % 991,1 hPa 0,0 l/m 0 min 0 min 0 W/m 12,9 km/h (3 Bft) 97,92 %
20.12.2019 23:20 8,3 C 7,2 C 6,7 C 85 % 991,1 hPa 0,0 l/m 0 min 0 min 0 W/m 16,1 km/h (3 Bft) 97,83 %
20.12.2019 23:22 8,3 C 7,2 C 6,7 C 85 % 991,1 hPa 0,0 l/m 0 min 0 min 0 W/m 12,9 km/h (3 Bft) 91,67 %
20.12.2019 23:24 8,3 C 7,2 C 6,7 C 85 % 991,1 hPa 0,0 l/m 0 min 0 min 0 W/m 12,9 km/h (3 Bft) 100,00 %
20.12.2019 23:26 8,2 C 7,2 C 6,7 C 85 % 991,1 hPa 0,0 l/m 0 min 0 min 0 W/m 16,1 km/h (3 Bft) 93,62 %
20.12.2019 23:28 8,2 C 7,2 C 6,7 C 85 % 991,1 hPa 0,0 l/m 0 min 0 min 0 W/m 16,1 km/h (3 Bft) 95,83 %
20.12.2019 23:30 8,2 C 7,2 C 6,7 C 86 % 991,1 hPa 0,0 l/m 0 min 0 min 0 W/m 19,3 km/h (3 Bft) 95,65 %
20.12.2019 23:32 8,2 C 7,2 C 6,7 C 86 % 991,1 hPa 0,0 l/m 0 min 0 min 0 W/m 12,9 km/h (3 Bft) 95,83 %
20.12.2019 23:34 8,1 C 7,2 C 6,7 C 86 % 991,1 hPa 0,0 l/m 0 min 0 min 0 W/m 12,9 km/h (3 Bft) 97,92 %
20.12.2019 23:36 8,1 C 7,2 C 6,7 C 86 % 991,1 hPa 0,0 l/m 0 min 0 min 0 W/m 12,9 km/h (3 Bft) 97,92 %
20.12.2019 23:38 8,1 C 7,2 C 6,7 C 86 % 991,1 hPa 0,0 l/m 0 min 0 min 0 W/m 19,3 km/h (3 Bft) 100,00 %
20.12.2019 23:40 8,1 C 7,2 C 6,7 C 86 % 991,1 hPa 0,0 l/m 0 min 0 min 0 W/m 16,1 km/h (3 Bft) 97,87 %
20.12.2019 23:42 8,1 C 7,2 C 6,1 C 86 % 991,1 hPa 0,0 l/m 0 min 0 min 0 W/m 16,1 km/h (3 Bft) 97,87 %
20.12.2019 23:44 8,0 C 7,2 C 6,1 C 86 % 991,1 hPa 0,0 l/m 0 min 0 min 0 W/m 12,9 km/h (3 Bft) 94,44 %
20.12.2019 23:46 8,0 C 7,2 C 6,1 C 86 % 991,1 hPa 0,0 l/m 0 min 0 min 0 W/m 19,3 km/h (3 Bft) 95,74 %
20.12.2019 23:48 8,0 C 7,2 C 6,1 C 86 % 991,1 hPa 0,0 l/m 0 min 0 min 0 W/m 19,3 km/h (3 Bft) 97,92 %
20.12.2019 23:50 7,9 C 7,2 C 6,1 C 86 % 991,2 hPa 0,0 l/m 0 min 0 min 0 W/m 16,1 km/h (3 Bft) 97,87 %
20.12.2019 23:52 7,9 C 7,2 C 6,1 C 86 % 991,2 hPa 0,0 l/m 0 min 0 min 0 W/m 16,1 km/h (3 Bft) 95,83 %
20.12.2019 23:54 7,9 C 6,7 C 6,1 C 86 % 991,2 hPa 0,0 l/m 0 min 0 min 0 W/m 12,9 km/h (3 Bft) 95,74 %
20.12.2019 23:56 7,9 C 6,7 C 6,1 C 86 % 991,2 hPa 0,0 l/m 0 min 0 min 0 W/m 19,3 km/h (3 Bft) 97,92 %
20.12.2019 23:58 7,9 C 7,2 C 6,1 C 86 % 991,2 hPa 0,0 l/m 0 min 0 min 0 W/m 16,1 km/h (3 Bft) 97,87 %
_ Min-Zeit 23:50 23:54 23:42 10:12 14:08 - - - - 18:00 20:08
Minimum _ 7,9 C 6,7 C 6,1 C 80 % 985,2 hPa - - - - 3,2 km/h (1 Bft) 44,44 %
_ Max-Zeit 17:12 14:48 15:56 18:00 00:00 11:00 00:00 10:36 13:44 13:48 00:10
Maximum _ 11,0 C 10,6 C 9,4 C 95 % 1000,7 hPa 0,2 l/m 0 min 2 min 77 W/m 51,5 km/h
O-SO (7 Bft)
100,00 %
Durchschnitt _ 9,6 C 8,6 C 7,9 C 87 % 990,4 hPa #2,6 l/m #0 min. #4:20 h 27 W/m 26,6 km/h (4 Bft) 97,29 %
© 2019 W. Hausmann